ECMWFFLT2_sfc_temp_105.txt.gz
Temp
81 78 79 81 80 80 79 76 76 76 76 76 76 76 76 76 76 77 77 76 75 79 80 79 77 80 75 79 75 74 75 75 75 75 75 75 75 75 75 75 74 74 73 73 73 72 73 73 72 73 73 74 74 79 87 87 88 87 86 84 82 80
75 72 74 76 80 80 79 78 80 79 79 78 76 76 78 79 78 79 77 78 79 80 82 81 80 79 80 79 77 74 75 75 75 75 75 75 75 75 75 75 74 74 73 73 72 78 76 73 72 73 74 73 77 86 86 88 87 87 86 83 81 77
75 73 72 72 77 81 80 80 82 81 80 78 78 79 79 79 79 80 79 80 79 81 82 82 80 80 82 78 79 74 75 75 75 75 74 74 74 74 75 75 74 74 73 72 77 84 83 82 80 73 73 77 81 87 86 87 87 86 84 81 80 75
77 75 76 74 74 78 80 80 83 82 78 77 77 78 77 78 76 78 79 79 79 81 82 81 81 80 80 80 77 74 74 75 74 75 74 75 74 74 74 74 74 73 74 79 83 86 86 85 84 81 81 83 87 86 87 88 88 85 83 82 81 75
76 76 76 73 72 73 78 81 83 78 77 77 73 73 75 75 74 73 77 75 74 76 79 79 80 80 81 81 80 79 78 79 79 79 75 80 78 78 78 80 78 77 82 83 87 88 88 86 84 84 86 87 86 87 87 86 87 86 83 80 78 75
77 77 74 72 73 72 73 77 79 74 78 75 74 73 73 76 75 74 76 74 73 73 73 71 72 74 80 80 80 81 80 81 81 80 80 81 82 80 80 81 80 81 84 85 88 88 88 87 86 87 86 86 86 87 88 88 87 84 81 79 77 74
76 75 72 71 73 75 76 75 70 76 76 74 74 76 73 76 75 72 75 75 73 74 74 72 71 71 74 80 80 82 83 83 82 82 81 82 81 80 82 82 82 83 85 88 89 89 88 88 87 88 87 88 87 88 86 88 87 85 82 79 77 74
75 72 71 73 73 74 73 71 72 74 77 77 76 77 76 73 75 73 72 74 74 75 75 71 71 69 70 71 79 82 83 84 84 83 82 81 80 81 81 83 83 85 87 89 90 88 89 89 88 88 88 87 87 86 86 88 87 85 83 79 79 75
74 73 72 73 74 77 73 71 72 73 76 77 78 76 74 73 72 72 73 73 73 72 74 73 71 71 71 70 69 77 82 83 84 84 82 81 81 81 82 84 84 85 86 87 88 87 89 88 87 88 88 87 88 86 85 86 86 85 84 82 79 76
74 73 73 74 76 77 76 72 73 73 76 77 73 74 72 70 71 71 70 72 73 72 72 71 71 70 69 68 71 75 78 81 82 85 83 82 83 84 83 85 84 85 87 87 87 87 87 87 88 88 89 88 86 86 85 86 85 85 83 82 78 76
76 74 75 76 78 77 75 75 74 76 78 75 72 71 71 70 71 72 71 70 71 71 70 70 71 69 69 68 70 70 71 74 78 82 84 83 84 83 84 84 83 84 86 87 86 88 87 86 87 89 88 87 86 85 86 86 86 85 84 82 79 77
77 76 76 79 79 78 74 72 72 76 77 77 75 73 73 75 72 71 71 70 69 70 72 72 71 71 69 70 72 74 73 73 72 77 82 83 83 82 83 85 83 84 85 85 86 86 86 86 87 89 89 88 87 86 85 85 84 84 84 82 81 79
76 75 78 78 77 76 75 73 74 78 78 77 76 75 74 75 76 72 74 70 69 69 72 72 72 71 72 73 74 74 72 71 73 71 73 80 81 81 82 83 82 83 84 85 85 84 88 86 85 86 87 86 86 85 84 85 84 83 83 83 82 79
74 74 77 78 77 75 75 74 77 78 79 79 79 77 76 76 77 76 74 71 69 71 72 73 72 70 73 74 74 73 70 70 70 72 72 78 78 80 82 82 82 83 81 82 83 83 84 84 85 86 85 83 84 82 83 85 83 83 82 82 83 82
80 79 78 77 78 77 73 72 76 77 77 77 78 79 80 80 80 79 78 69 69 71 74 73 73 71 71 74 74 72 71 71 71 71 71 74 77 79 81 81 82 82 82 82 83 83 83 83 83 84 81 82 82 82 82 82 82 82 82 82 82 82
80 80 79 79 79 78 74 72 73 78 78 77 76 77 79 80 80 81 82 72 71 72 73 75 74 73 71 73 73 72 71 72 72 71 71 74 74 74 76 79 81 82 80 82 82 82 82 81 82 82 79 80 80 80 81 83 81 82 83 82 82 81
79 79 79 79 78 77 76 74 75 78 79 78 78 78 79 79 80 81 79 75 71 71 74 73 75 74 72 72 72 72 73 73 72 73 72 71 70 69 70 71 79 82 82 80 83 79 79 77 78 79 77 79 80 80 81 80 80 81 83 81 81 81
80 80 79 78 78 78 79 78 79 79 78 77 77 75 77 78 79 80 77 75 71 74 76 76 75 74 73 73 72 72 72 73 72 70 71 70 69 69 69 71 70 78 82 81 80 78 74 76 77 74 76 77 78 80 80 79 79 80 81 81 80 79
80 80 79 79 79 78 78 78 80 79 78 77 76 76 78 79 80 77 78 77 72 73 76 76 75 75 73 73 72 71 71 72 71 69 70 70 69 68 69 69 67 71 78 78 77 75 72 74 76 76 75 75 77 78 80 80 79 79 79 78 78 76
80 80 80 80 80 80 80 79 78 78 77 77 78 77 78 78 79 79 78 78 77 76 77 77 77 76 75 73 71 70 70 72 71 70 70 69 69 69 68 68 69 69 72 73 78 72 72 72 74 74 68 70 73 76 77 77 78 78 77 75 75 76
79 79 80 79 79 79 78 78 77 76 76 77 77 77 77 77 78 79 78 78 78 77 77 77 77 74 74 73 72 71 71 70 70 69 69 70 70 72 70 70 68 68 67 70 74 74 72 70 69 66 68 67 66 70 70 73 76 77 77 77 75 76
79 79 79 79 79 78 78 79 77 78 77 78 78 77 77 77 77 78 78 78 77 77 76 76 77 76 69 71 70 71 71 70 70 69 70 72 72 73 72 69 67 66 68 68 70 72 70 70 67 66 63 64 66 67 69 68 72 74 75 76 74 73
78 78 78 77 78 78 78 77 76 76 77 79 79 79 79 79 78 77 77 78 78 77 77 77 77 77 71 68 69 68 70 71 71 70 68 69 71 71 70 68 66 65 66 68 72 73 71 74 71 70 68 67 65 64 65 67 71 73 72 72 71 72
77 78 78 77 78 79 78 77 77 77 77 77 77 78 78 78 78 77 76 77 78 77 78 78 78 77 75 73 69 69 68 68 69 69 68 67 69 71 68 69 68 71 69 66 70 69 71 72 72 70 64 65 66 66 63 64 65 69 71 72 71 71
77 77 77 77 76 77 76 76 76 77 77 76 77 77 77 77 77 77 76 77 77 77 77 77 78 78 77 76 72 68 68 69 69 68 68 68 68 70 69 71 71 71 69 68 71 70 70 72 72 73 70 66 64 62 64 68 67 67 70 69 71 72
77 77 77 77 76 76 76 75 75 74 73 74 74 75 74 74 76 76 76 78 79 79 78 77 77 78 79 77 75 75 72 72 70 67 69 68 69 67 72 76 77 76 73 72 71 70 68 72 71 72 72 71 72 69 69 70 67 61 69 71 72 73
76 76 77 77 77 76 75 75 75 75 75 75 75 77 78 78 78 79 78 77 78 78 79 77 77 78 77 77 76 75 75 74 74 71 70 71 69 69 75 75 77 76 76 76 75 72 70 69 70 70 73 73 73 74 74 70 65 68 63 66 67 68
76 77 76 77 76 77 75 75 75 75 76 76 76 76 77 77 78 78 77 77 77 77 77 78 77 78 77 77 76 75 75 74 74 74 72 71 68 69 71 74 74 76 75 76 75 72 71 71 67 69 71 72 72 73 72 69 70 69 67 62 63 68
75 76 77 77 76 77 77 76 76 76 76 77 77 77 78 78 77 77 76 75 76 77 77 76 78 77 77 77 76 75 73 71 72 73 73 69 67 69 68 69 70 70 72 73 74 74 72 71 70 69 70 69 73 72 69 68 68 70 68 66 65 65
76 77 77 76 76 76 76 76 75 75 75 75 77 78 77 77 77 74 71 68 70 75 76 76 76 77 77 78 77 75 74 72 68 68 70 69 72 72 71 73 72 71 71 71 72 71 69 69 71 70 70 72 71 70 70 69 67 66 67 70 63 64
76 77 77 76 76 75 76 76 75 75 75 75 76 76 75 74 75 71 69 67 67 73 76 76 76 76 76 76 76 76 72 69 68 69 69 69 69 69 69 69 69 71 72 72 71 71 70 69 71 72 74 74 73 71 69 69 68 69 66 66 67 68
76 76 77 77 77 76 76 76 76 76 75 76 76 75 75 74 72 72 69 68 70 72 75 76 75 75 74 75 75 74 73 71 68 70 70 69 69 70 70 70 70 70 71 71 71 70 71 69 69 69 73 73 74 73 71 72 72 71 70 69 70 69
73 75 76 76 76 76 76 75 75 75 76 76 76 76 75 74 71 69 69 70 71 72 74 74 75 75 74 74 73 73 72 71 69 69 69 69 68 69 70 68 68 68 69 69 68 67 66 68 67 65 69 73 73 70 69 73 74 73 74 75 72 70
74 75 76 75 76 75 75 76 77 77 76 76 75 75 72 70 67 70 69 70 71 73 73 74 75 75 75 75 74 73 74 71 71 70 68 68 68 70 69 68 67 66 66 69 68 68 67 68 67 71 73 71 71 72 73 75 75 74 74 71 70 69
73 74 75 75 76 76 76 76 75 76 75 76 75 75 75 73 70 68 71 73 73 74 74 76 77 76 76 74 74 74 73 72 70 70 69 68 70 70 68 68 70 72 72 67 67 67 67 69 71 72 70 68 67 70 74 77 76 75 78 75 75 71
72 72 73 74 75 75 75 75 75 75 75 75 76 75 75 74 74 73 73 73 74 72 74 75 77 77 77 75 73 73 73 70 70 70 70 70 70 70 70 67 69 72 71 73 70 69 68 68 70 70 67 67 68 69 75 76 77 76 77 77 76 74
70 72 73 74 73 74 74 74 74 74 74 74 74 74 74 74 74 74 74 73 70 73 73 72 72 74 75 75 74 74 74 73 71 71 70 70 70 70 70 69 69 70 71 72 72 71 70 70 69 68 66 66 68 71 73 76 77 75 75 74 77 78

ECMWFFLT2_sfc_temp_111.txt.gz
Temp
73 73 73 72 72 72 74 76 75 75 76 76 75 76 76 76 76 76 76 75 74 72 72 73 73 73 76 72 73 74 75 74 75 75 75 75 75 75 75 74 73 73 73 72 72 73 72 73 73 73 73 73 74 69 71 74 73 72 71 71 71 73
73 73 73 73 73 73 73 74 71 72 73 74 75 75 74 72 75 72 75 74 72 73 71 71 72 75 72 73 74 74 75 75 74 74 74 75 75 75 75 74 74 73 73 72 72 67 68 72 73 73 73 74 70 69 73 73 73 72 72 70 71 73
74 73 73 73 73 73 72 71 71 72 73 74 74 73 72 73 70 71 72 72 73 72 72 72 72 73 73 74 73 74 75 75 74 75 74 74 75 75 75 74 74 73 72 72 68 67 67 68 68 73 73 70 67 69 74 73 72 71 71 71 70 75
74 73 73 72 72 71 71 71 71 71 71 71 71 72 70 70 70 71 72 71 71 72 72 72 76 76 77 73 72 74 74 75 75 74 74 73 74 74 75 74 74 73 71 71 68 67 70 70 69 69 69 68 68 71 73 72 72 71 71 73 72 75
73 73 72 72 72 70 71 70 70 71 71 70 71 71 70 70 70 70 70 71 71 72 71 71 72 72 71 70 69 69 70 70 69 69 73 68 69 72 70 70 69 70 68 69 69 70 71 70 69 71 70 69 71 74 73 72 72 71 70 70 71 74
73 72 71 71 70 72 70 69 70 70 70 70 70 69 68 66 66 67 68 70 70 69 70 70 69 70 70 69 69 68 68 69 69 69 71 69 68 69 69 69 70 69 68 69 70 71 72 71 71 70 70 71 72 74 72 71 71 70 69 69 72 74
72 71 71 71 70 69 69 69 69 70 69 68 69 68 67 66 67 67 67 68 68 67 68 68 69 68 68 68 68 68 67 68 68 69 70 69 69 69 69 69 68 69 69 70 72 74 74 75 74 74 72 75 74 74 71 71 71 70 69 69 72 75
71 70 70 71 70 69 68 69 70 71 69 70 69 68 66 66 67 66 67 67 70 67 67 67 68 68 67 67 68 68 68 68 69 69 69 69 69 68 70 70 70 70 71 72 75 76 76 77 76 75 76 76 75 73 71 71 70 70 69 68 71 74
71 70 70 70 69 69 69 68 68 67 68 71 68 68 67 67 66 67 67 67 68 67 67 67 66 67 67 67 67 67 67 66 66 67 68 69 70 70 70 71 71 70 71 72 72 74 74 76 75 74 76 76 74 73 71 70 70 70 69 68 69 72
71 70 70 70 69 68 68 67 68 68 69 70 67 68 67 66 66 66 66 67 67 67 66 66 66 67 67 67 67 67 67 66 67 67 66 68 69 70 69 69 70 70 71 72 72 71 72 73 74 74 75 75 74 73 71 70 70 70 69 68 68 71
71 71 70 70 70 69 69 68 68 68 68 67 68 68 67 66 66 66 67 67 67 67 66 66 66 66 67 67 67 67 67 67 66 66 67 66 66 67 68 68 70 70 71 71 70 69 71 72 72 74 74 75 74 72 72 71 70 70 69 68 67 68
71 71 71 71 71 69 69 69 69 69 68 68 68 67 66 65 66 66 67 66 66 66 67 66 66 66 66 67 67 67 67 67 66 67 67 67 67 67 67 69 71 71 71 70 68 70 70 71 72 73 74 75 71 68 70 70 70 69 69 68 67 67
71 71 70 70 69 70 70 70 69 69 68 68 67 67 65 66 65 65 67 67 66 67 66 66 66 67 67 67 67 67 67 67 67 67 67 67 67 66 67 68 70 72 72 68 70 69 72 68 68 68 72 72 69 68 69 72 70 69 68 68 67 67
71 70 70 70 70 70 70 70 70 69 69 67 67 66 66 66 67 67 67 67 66 66 66 66 67 68 68 67 67 66 66 66 67 67 67 66 66 66 67 68 70 70 73 69 70 69 64 65 66 68 69 70 69 69 70 71 70 69 69 68 68 67
72 70 71 70 71 70 70 70 70 68 67 67 67 66 66 66 66 66 66 66 66 66 66 66 67 67 67 67 66 65 65 66 67 66 67 67 67 66 66 67 68 69 70 68 67 65 64 65 67 67 66 65 66 66 66 67 69 69 70 68 68 67
71 70 70 70 70 71 71 70 70 70 68 67 67 66 66 66 66 66 66 65 66 66 66 67 67 67 67 67 65 65 66 66 67 67 67 67 68 67 67 67 69 69 67 68 66 63 65 65 65 65 64 65 65 66 66 66 67 69 69 69 68 68
70 70 70 70 70 70 70 70 70 70 68 68 67 66 66 67 67 67 66 65 66 67 67 68 68 68 67 67 66 65 66 67 67 67 67 67 67 67 67 68 68 68 68 65 65 64 64 65 64 64 64 66 66 66 66 66 65 65 70 69 68 68
70 70 70 70 70 70 70 70 70 70 70 68 67 67 66 66 67 66 66 66 67 68 68 68 69 68 67 67 66 65 66 67 68 67 67 67 67 67 67 66 66 67 67 64 63 63 63 63 63 62 63 65 65 65 65 65 65 67 65 67 67 67
70 69 69 70 70 70 71 70 70 70 69 68 67 67 66 66 66 66 66 67 68 68 68 68 69 68 67 66 65 65 65 66 67 67 67 66 66 67 66 66 66 65 65 65 65 64 64 64 63 63 64 64 64 64 66 65 66 65 65 65 66 68
70 70 70 70 70 70 70 69 68 68 68 68 67 67 67 66 66 66 67 68 69 68 68 68 68 68 67 66 65 65 65 66 66 66 66 66 66 66 66 65 65 65 64 64 65 65 64 63 62 62 62 63 64 65 66 65 64 64 65 65 66 66
70 70 70 69 69 68 68 67 67 68 67 68 68 68 67 67 67 67 68 69 69 68 68 68 69 68 67 67 66 65 64 65 66 67 66 66 66 66 66 66 65 65 64 64 64 65 65 64 62 61 62 62 63 65 65 66 64 64 65 64 65 65
70 70 70 70 69 68 69 68 68 69 70 69 68 68 67 68 68 70 70 70 69 68 68 68 68 68 67 66 65 65 65 65 66 67 67 67 66 67 66 66 66 64 65 65 63 65 65 63 60 60 60 59 61 63 64 64 64 64 64 64 65 65
70 69 69 71 68 68 67 68 67 67 67 68 70 71 71 71 71 70 70 70 69 68 68 68 68 68 67 66 66 66 66 66 66 67 66 65 66 65 66 66 66 65 64 64 64 65 64 65 61 62 60 59 58 58 60 61 63 64 64 65 64 64
69 69 69 70 70 69 69 68 69 68 68 69 69 70 71 70 70 69 69 69 69 69 69 68 69 68 68 67 66 66 66 66 66 67 66 65 65 65 65 65 66 65 64 62 63 62 65 64 63 61 56 58 58 58 56 58 59 62 63 64 63 63
68 69 69 69 68 68 68 67 68 68 69 68 69 68 67 67 68 69 69 68 68 69 69 69 69 69 68 67 67 66 66 66 66 66 66 65 65 65 66 66 66 65 65 63 62 62 64 64 63 64 61 59 56 56 57 57 59 59 62 62 63 63
69 69 70 70 70 69 68 67 67 65 65 64 64 65 66 66 66 66 67 69 69 69 69 69 69 69 69 68 66 66 65 65 65 65 66 66 66 66 65 65 66 66 65 65 64 61 61 64 63 63 63 63 62 58 58 59 60 54 61 63 63 63
69 69 70 70 72 70 69 69 67 66 66 66 66 67 68 68 68 68 69 68 69 69 70 69 69 69 68 68 67 65 65 65 66 65 65 65 66 66 65 65 66 65 65 65 64 60 61 62 63 62 63 63 63 64 63 60 56 57 56 60 62 62
67 69 70 71 72 71 70 69 67 66 67 67 67 67 69 69 68 69 68 68 68 69 70 70 70 69 68 65 63 63 65 64 64 65 65 65 65 65 65 65 65 66 65 65 64 62 61 62 61 61 62 62 63 63 62 61 62 60 59 57 58 62
67 67 68 69 70 71 71 70 69 68 67 67 67 68 68 69 68 67 67 67 68 68 69 68 67 67 66 65 64 64 64 64 64 65 66 65 65 65 65 64 64 64 64 64 64 63 62 62 62 61 61 61 62 61 61 62 62 61 58 57 58 59
68 68 68 68 68 68 68 68 69 69 68 67 67 67 67 66 66 66 65 65 65 66 66 65 65 66 65 65 65 65 65 64 64 65 65 65 65 65 65 65 65 64 64 64 64 64 63 62 63 63 63 62 60 61 61 61 60 60 59 61 58 58
67 68 69 69 69 67 68 69 69 69 68 67 66 66 65 64 63 63 64 64 65 66 66 65 63 64 64 66 65 65 64 65 65 66 64 63 64 63 64 64 65 65 65 63 63 64 63 63 63 63 63 62 61 62 61 60 60 60 59 59 58 58
68 68 68 69 68 67 69 69 69 69 69 68 67 66 65 65 63 63 63 63 64 65 66 65 62 63 64 64 64 64 65 65 66 65 64 64 64 65 64 64 63 64 64 63 64 64 63 63 63 63 63 63 63 63 62 62 62 63 61 61 61 58
68 69 69 69 69 69 69 69 68 69 68 67 68 68 67 66 65 64 64 63 63 63 64 63 61 62 62 63 63 63 64 65 65 65 64 64 64 65 64 64 64 63 63 63 63 64 63 63 63 62 62 63 63 63 62 62 63 63 63 62 61 58
67 68 69 69 69 68 68 69 68 68 69 68 67 66 65 66 66 65 64 63 63 63 63 63 62 61 62 63 63 64 65 64 64 64 64 64 65 65 65 64 64 63 63 63 64 64 63 64 63 63 63 62 62 62 62 63 63 63 62 62 60 60
65 66 67 67 67 67 68 69 68 67 66 66 65 65 65 68 68 67 65 64 64 63 63 63 61 63 63 63 63 63 63 63 64 64 64 64 64 64 65 65 65 64 64 64 64 64 63 63 63 63 63 63 63 63 63 64 64 64 65 64 64 61
64 64 65 65 65 65 65 66 65 65 65 64 64 64 65 65 66 66 65 64 63 63 63 64 62 63 63 63 63 63 63 63 64 64 65 64 64 64 64 65 64 64 63 65 64 64 64 63 64 64 64 63 63 63 64 65 66 66 66 64 65 63
63 63 63 63 63 65 66 65 64 65 65 65 66 65 65 65 65 65 64 64 64 63 63 63 62 62 62 63 63 63 62 63 63 64 65 64 64 64 64 63 63 63 63 64 64 63 63 63 63 63 63 64 63 64 64 66 66 66 64 63 64 63

ECMWFFLT2_sfc_temp_114.txt.gz
Temp
70 70 70 71 70 71 73 75 75 75 75 75 75 75 75 76 76 76 75 75 74 72 71 71 73 71 75 72 73 74 74 74 74 74 74 74 74 74 74 73 72 72 72 72 72 73 72 73 73 73 73 73 73 69 68 69 69 68 68 68 69 70
70 70 70 71 71 72 72 73 70 71 72 74 75 75 74 72 75 71 75 73 70 71 69 69 69 74 71 72 73 74 74 74 74 74 74 74 74 74 74 73 73 72 72 72 72 65 66 69 72 72 73 72 69 67 68 69 68 68 68 68 68 72
70 70 70 71 71 71 70 69 70 70 72 74 74 73 71 72 69 70 70 70 70 69 69 69 69 71 71 73 72 74 74 74 74 74 74 74 74 74 74 73 73 72 71 72 67 64 64 65 65 72 71 68 67 68 68 68 68 68 67 67 67 74
70 70 70 70 70 70 69 69 70 70 70 70 70 70 69 69 69 69 69 68 68 69 69 68 73 75 75 70 71 73 74 74 74 74 74 73 74 74 74 74 73 72 70 68 64 65 66 66 66 65 65 67 67 68 68 68 67 67 67 71 70 74
71 70 70 70 70 69 69 69 69 69 69 68 69 69 69 68 68 67 67 68 67 70 68 69 69 69 69 68 67 68 69 68 69 67 72 67 67 70 69 68 68 68 64 65 65 65 65 66 67 67 66 68 69 68 68 68 67 67 68 69 69 74
71 70 70 69 69 70 70 68 68 69 68 68 69 68 67 67 66 66 66 68 69 67 68 66 68 69 69 68 66 66 66 67 67 67 69 66 66 66 66 68 68 66 65 65 65 65 66 68 68 67 67 67 69 68 68 67 68 67 67 67 71 74
70 70 69 69 69 69 68 68 68 68 68 68 67 68 66 65 66 66 67 67 66 66 66 68 67 67 67 67 67 66 65 66 67 66 68 66 66 67 67 68 68 68 66 66 67 67 68 69 69 70 69 70 69 69 67 67 67 67 66 67 71 74
69 69 68 69 68 68 67 68 68 71 69 69 68 66 65 65 66 65 66 66 68 65 66 67 67 66 66 67 67 66 66 65 65 65 65 67 66 65 66 67 69 68 67 67 68 69 69 71 71 71 70 70 70 68 67 66 67 67 67 67 69 73
69 69 68 68 68 67 67 68 68 67 67 71 67 66 65 66 65 66 66 66 67 65 64 65 65 66 66 66 66 66 65 64 64 64 64 65 66 66 66 67 68 69 67 67 67 68 69 71 70 70 70 71 70 68 67 66 66 67 66 66 68 71
69 69 68 68 67 67 67 67 66 67 66 70 65 66 65 65 65 66 66 66 66 65 65 65 65 66 66 66 65 66 65 65 65 64 64 64 65 66 65 65 66 68 69 68 67 68 69 69 69 70 69 70 67 68 67 67 67 67 66 66 67 70
69 70 68 68 67 67 67 67 66 66 67 68 66 67 65 64 64 65 65 65 66 66 65 65 65 66 66 66 66 66 65 65 65 64 64 64 64 66 66 66 67 67 68 68 67 67 68 67 67 69 70 69 68 67 67 67 67 66 66 66 66 66
69 70 69 68 68 67 67 67 67 67 67 67 67 65 65 64 66 65 66 66 66 66 67 65 66 66 66 65 65 65 65 65 65 65 65 65 64 65 66 66 67 68 68 68 66 65 65 64 65 67 69 67 66 65 65 65 66 67 66 65 65 66
69 69 68 68 68 67 67 67 67 67 67 67 66 65 65 65 65 65 65 66 66 66 67 66 66 66 67 66 66 65 65 65 65 66 65 65 65 65 65 66 65 67 67 67 66 64 66 64 64 65 65 65 65 66 66 65 65 66 65 65 64 64
69 69 69 68 68 67 67 68 68 67 67 66 65 65 65 65 65 66 66 66 66 66 67 66 66 65 66 66 65 65 65 65 66 66 65 65 65 65 65 65 66 67 69 66 64 63 63 64 63 64 64 65 65 65 66 66 65 65 65 65 64 64
70 68 69 68 68 68 68 68 67 67 66 66 66 65 64 65 66 66 67 67 67 67 67 66 66 65 66 67 66 65 65 66 66 66 66 66 66 65 64 65 65 66 65 65 63 64 64 63 63 63 63 64 64 64 65 65 65 65 65 65 64 64
69 68 68 68 68 68 68 67 67 68 66 66 66 65 65 65 66 66 66 66 67 67 67 66 66 66 65 66 66 66 65 64 65 65 65 65 66 65 65 65 65 66 65 64 64 62 63 63 63 63 63 63 64 64 64 65 65 65 65 65 64 65
68 68 68 68 68 68 67 67 67 67 66 66 65 65 65 65 66 66 66 65 65 66 66 66 66 66 65 66 66 66 65 65 65 65 65 65 65 66 65 65 65 65 65 64 64 63 63 63 63 63 63 63 63 64 65 65 65 65 65 64 64 65
68 69 68 68 68 68 67 67 66 66 68 66 65 65 65 65 65 65 65 65 64 65 66 65 65 66 65 66 66 66 66 66 65 65 65 65 65 65 65 65 64 64 65 64 63 63 62 63 63 62 62 63 63 64 64 64 64 66 64 64 64 65
69 68 68 68 67 67 67 67 67 66 65 65 66 65 65 64 65 65 64 64 65 65 66 65 65 66 66 66 65 65 65 65 65 66 66 65 65 65 65 64 63 62 63 64 63 63 63 62 62 62 62 62 63 63 64 64 64 64 64 64 65 67
68 68 68 68 68 66 66 66 66 65 65 65 66 65 65 64 63 64 65 65 65 65 65 65 65 65 65 66 65 65 64 64 64 66 66 65 65 65 65 64 64 63 62 63 64 63 63 63 61 61 61 61 62 63 64 64 64 64 64 64 65 66
67 68 68 68 67 67 66 65 64 65 65 65 65 65 65 64 63 64 65 65 65 65 65 65 66 65 64 66 64 63 64 64 65 65 65 66 66 65 65 65 64 63 63 62 62 63 63 63 61 60 61 60 61 63 65 65 63 63 64 64 64 64
67 67 68 68 68 67 66 66 66 66 65 66 65 65 65 65 65 66 65 65 65 65 65 65 66 65 65 64 63 63 63 62 64 65 66 66 66 66 66 64 63 62 63 62 61 63 63 62 60 59 59 59 59 61 64 63 63 63 63 63 63 64
67 67 67 68 67 67 67 67 66 66 65 66 66 66 65 66 67 66 65 66 66 66 65 65 65 66 64 63 63 63 64 63 63 65 65 65 65 65 65 64 64 62 62 63 63 64 63 63 60 61 60 58 57 57 60 61 62 63 63 62 62 63
67 66 66 68 68 67 67 66 66 66 65 65 66 66 67 67 66 65 66 66 65 65 65 65 65 65 65 63 64 64 64 64 64 64 65 65 65 65 65 65 65 64 64 62 62 62 64 63 62 60 56 57 57 58 55 57 59 61 62 63 63 63
66 66 67 68 67 66 66 66 64 66 63 65 65 64 64 64 64 66 67 65 66 66 66 65 64 64 65 64 64 65 65 65 65 64 65 66 65 65 65 65 66 65 64 63 62 62 63 64 63 63 60 57 55 55 56 58 59 58 61 61 62 63
66 66 67 66 66 66 65 64 65 65 64 63 63 61 62 64 64 65 66 66 66 66 65 64 64 64 64 64 63 64 63 63 64 64 65 65 65 65 64 64 65 65 64 64 63 62 62 63 63 63 63 62 61 58 57 58 59 54 60 62 62 63
67 65 66 66 66 66 65 64 64 62 62 63 62 63 64 65 65 66 66 65 65 64 65 65 65 65 64 64 64 63 63 63 63 64 65 65 65 65 65 65 65 65 65 65 63 61 62 61 61 62 62 62 62 62 61 59 56 57 55 59 61 61
68 68 66 66 67 66 66 65 64 62 63 64 64 65 66 67 67 66 65 65 64 64 65 66 65 65 65 64 64 63 63 63 63 63 64 65 65 66 66 66 66 66 66 65 64 62 62 62 60 60 62 61 61 62 62 61 60 60 59 56 57 61
67 66 67 67 67 66 66 66 65 65 64 65 65 66 66 65 63 63 64 64 64 64 64 64 64 64 64 64 64 63 63 63 64 64 64 65 65 65 65 65 65 65 64 64 64 64 63 62 61 60 60 61 61 61 60 61 60 60 58 57 57 58
66 65 67 67 67 67 66 67 66 65 64 64 63 63 64 63 63 63 64 63 64 62 63 63 63 64 64 64 63 63 63 63 63 64 64 64 65 65 65 65 66 65 65 64 64 64 63 62 62 62 62 61 60 60 59 59 59 58 59 61 58 58
66 66 68 68 69 69 69 68 67 66 66 65 63 63 63 63 62 62 61 62 62 63 62 62 62 62 62 63 63 63 63 63 63 63 63 63 64 64 65 65 65 65 65 64 63 63 62 63 62 62 62 61 60 61 59 58 58 59 59 57 57 59
66 66 67 67 67 67 67 67 67 67 67 66 65 65 63 63 62 62 62 62 62 62 62 61 61 61 61 62 62 62 63 63 63 63 63 63 64 64 64 64 64 63 64 64 64 63 62 62 62 62 62 62 62 62 61 61 61 62 61 59 60 58
66 67 67 68 67 67 67 66 67 67 67 66 66 66 65 64 63 63 63 62 61 61 61 61 60 60 61 61 62 62 62 62 63 63 64 63 64 65 64 63 63 63 63 63 63 63 62 62 62 62 62 63 62 62 62 62 62 63 62 61 60 57
65 66 66 66 67 66 66 67 67 67 67 67 67 66 66 66 66 64 63 62 61 61 61 62 61 60 61 61 61 62 63 62 63 63 63 63 64 64 63 63 63 62 62 63 63 63 63 63 63 63 63 62 62 62 62 63 63 63 61 60 59 59
64 65 66 65 65 65 66 66 66 66 65 65 64 64 65 64 64 63 64 63 62 61 62 62 61 62 62 61 61 61 61 62 62 63 63 63 63 63 63 63 63 63 63 63 62 63 63 63 62 62 62 62 62 62 63 63 63 63 64 63 62 60
64 64 65 65 64 64 65 65 65 65 64 63 63 62 62 63 62 61 62 61 61 60 61 61 61 61 61 61 61 61 61 62 62 62 63 63 63 63 63 63 63 63 62 64 63 63 63 63 63 63 62 62 62 62 63 63 63 63 63 63 63 61
64 64 64 64 64 64 64 63 62 62 61 61 61 61 61 61 62 62 61 61 60 61 60 60 61 60 62 62 62 61 61 61 62 62 63 63 63 63 63 63 62 62 62 63 63 63 63 63 63 63 62 62 62 62 62 63 63 63 62 62 62 62

ECMWFFLT2_sfc_temp_117.txt.gz
Temp
70 69 69 69 69 69 72 75 74 75 75 75 74 75 75 76 75 75 75 75 72 71 70 71 71 70 74 71 73 74 74 74 74 74 74 74 74 73 73 72 72 72 72 72 72 72 72 73 73 73 73 74 73 67 66 66 66 66 66 66 68 67
70 69 69 69 70 70 71 73 69 71 71 73 74 74 73 71 75 71 74 72 70 72 69 68 69 74 70 72 72 74 74 74 74 74 74 74 74 73 73 72 72 72 72 71 70 64 65 70 73 73 73 72 67 65 66 66 65 66 65 65 66 70
70 69 69 69 69 70 69 69 68 69 71 73 73 72 70 71 68 70 69 69 70 70 68 68 68 70 70 73 71 74 74 74 74 74 73 73 74 73 73 72 72 71 71 70 64 62 63 62 65 73 73 69 65 65 65 65 65 66 65 65 65 74
70 69 69 68 69 69 68 68 68 69 69 69 69 70 69 68 68 68 69 68 67 67 67 66 73 74 74 69 69 73 74 74 74 74 74 72 73 73 73 73 73 71 68 67 64 62 64 63 62 64 65 64 64 65 65 65 65 64 64 68 65 74
70 70 69 69 70 69 68 68 68 68 68 67 68 68 68 67 67 66 66 66 65 68 66 65 66 67 68 67 66 67 68 68 68 67 71 66 66 67 68 65 65 66 64 66 65 63 64 64 65 66 65 65 65 65 66 66 65 64 64 66 68 74
69 69 70 69 69 70 70 69 69 69 67 67 67 66 66 65 65 65 66 66 67 66 66 66 66 66 67 65 66 66 65 65 65 65 68 66 65 65 65 64 65 66 66 66 65 64 65 65 65 65 65 65 66 65 65 65 65 65 65 65 68 74
69 69 69 70 69 69 68 68 68 68 67 67 66 66 65 64 65 65 67 67 66 65 66 66 66 66 66 65 65 65 65 64 64 64 67 66 66 64 65 65 64 65 64 66 66 66 65 66 65 67 66 67 66 66 65 65 64 64 64 65 69 74
68 69 69 69 68 68 67 67 68 70 68 69 67 65 64 64 65 65 66 67 67 64 66 66 65 65 66 64 65 64 64 64 63 64 65 65 64 63 64 65 66 65 66 66 67 67 66 68 66 67 67 67 66 65 65 64 65 65 64 64 67 73
68 69 68 68 67 66 66 66 67 68 67 70 66 65 65 65 65 65 66 67 67 64 64 65 65 65 65 65 65 64 64 64 63 64 62 65 64 63 64 65 65 66 65 65 64 65 67 67 66 67 67 67 67 65 65 65 64 64 64 64 65 70
69 68 68 67 67 66 66 66 67 68 67 70 66 65 64 64 64 65 65 65 66 64 64 64 64 65 64 64 64 64 64 63 63 63 63 63 64 63 63 63 65 66 66 66 66 65 66 66 67 67 66 67 65 65 64 64 64 63 63 63 64 66
68 69 67 67 66 66 66 66 66 66 67 67 66 66 65 64 64 65 65 65 66 66 64 64 63 64 66 65 64 64 64 63 63 64 63 63 62 64 63 63 65 65 67 66 66 66 66 65 66 67 66 66 65 64 64 65 64 64 64 64 64 65
68 69 68 66 67 66 66 66 66 65 66 66 66 66 65 64 65 64 65 66 65 64 66 64 64 64 65 64 64 64 65 64 65 64 64 64 63 63 64 64 64 66 67 67 66 65 65 65 65 66 66 66 65 64 63 64 64 64 64 64 63 64
68 68 67 66 66 66 66 66 66 66 66 67 66 65 65 65 64 63 64 66 66 65 65 64 64 64 65 65 65 64 64 65 65 65 65 65 64 63 64 64 65 66 66 66 66 64 65 64 64 64 64 64 63 63 64 64 64 64 64 65 65 64
67 67 67 66 66 66 66 65 66 65 67 66 65 65 65 63 64 64 64 66 66 66 66 65 64 64 64 65 65 65 65 65 65 65 65 64 64 64 64 64 66 66 68 66 65 65 64 63 64 64 64 64 63 63 63 64 63 64 64 64 64 64
69 66 68 66 67 66 65 66 66 65 66 65 65 64 64 63 64 64 65 64 66 67 67 67 66 65 65 65 65 65 65 65 65 65 65 64 65 64 64 64 65 66 65 65 65 64 64 63 63 63 63 63 63 63 63 63 64 64 64 63 63 64
67 67 66 67 66 66 66 65 66 67 65 64 64 64 64 63 64 65 66 66 67 67 67 67 67 67 66 66 66 66 66 65 65 64 64 64 65 64 64 64 64 64 64 64 64 63 63 63 63 63 62 62 63 63 63 63 63 63 63 63 63 64
67 67 66 66 65 65 66 66 66 66 65 64 64 63 63 63 64 64 65 66 67 67 68 67 67 67 66 66 67 67 66 66 65 64 64 64 65 65 64 64 64 64 64 63 64 63 63 63 62 63 63 63 63 63 63 63 63 63 63 63 64 64
67 67 66 65 65 65 66 66 65 65 67 65 63 63 63 63 63 64 64 64 64 66 66 67 67 67 66 67 67 67 67 67 66 65 65 65 65 65 64 63 63 63 63 63 62 62 62 62 62 62 62 63 63 63 63 63 63 65 63 63 63 63
68 66 65 65 65 65 66 65 65 66 66 66 65 64 63 63 64 65 64 63 63 65 66 66 67 67 66 66 66 66 66 67 67 66 66 65 65 65 65 64 63 62 63 63 62 62 62 62 62 62 61 62 62 62 62 62 63 63 63 63 63 64
66 66 65 65 65 65 67 66 66 66 66 66 65 65 64 64 63 63 64 64 64 64 66 66 66 67 67 67 66 66 66 66 66 66 65 65 65 65 65 64 64 64 62 62 62 62 62 62 61 61 61 61 61 62 62 62 62 63 63 63 64 64
67 67 67 67 67 67 66 66 66 66 66 64 64 64 64 63 62 63 63 64 64 64 65 65 65 65 65 67 66 66 65 65 66 65 65 65 66 66 65 65 64 64 63 61 61 62 62 62 60 60 60 60 61 62 63 63 61 62 62 62 63 63
67 67 67 67 67 67 66 65 65 66 65 63 62 62 62 63 64 64 64 64 64 64 65 64 65 64 65 65 66 65 65 65 65 65 65 66 66 66 66 65 64 61 63 61 60 62 62 62 59 59 58 58 60 61 63 63 62 62 61 62 63 63
67 66 66 66 67 67 66 64 64 63 63 63 63 65 64 64 66 64 64 64 65 65 65 64 65 65 65 64 65 65 65 65 65 65 65 65 65 65 66 65 64 62 61 62 61 62 63 63 59 60 60 59 57 57 60 60 62 62 62 61 62 62
66 65 65 66 67 65 64 64 63 64 63 64 64 64 63 63 64 63 63 64 64 64 64 64 64 65 65 65 64 64 65 64 64 65 64 64 65 65 65 65 64 63 63 60 61 61 63 63 61 60 55 57 57 57 55 57 59 61 61 61 62 62
65 65 65 66 66 63 65 65 61 63 62 63 62 60 61 61 61 63 64 62 64 65 65 64 64 64 63 63 63 64 64 64 64 64 65 65 65 65 66 66 66 64 63 62 61 62 62 63 62 63 60 56 54 54 56 57 59 59 61 61 62 63
64 63 64 64 63 63 63 63 62 61 60 60 61 61 62 63 62 63 62 63 63 64 64 64 64 63 62 63 63 63 64 64 64 65 65 65 65 65 65 65 66 65 64 64 63 61 61 63 63 63 62 61 59 56 56 58 58 55 60 62 62 63
64 63 63 64 63 63 61 61 62 61 61 60 60 60 60 62 63 63 63 63 63 63 64 63 64 63 63 63 63 63 63 63 63 63 64 64 65 65 65 65 66 65 65 64 63 60 61 61 62 62 62 61 61 61 61 58 56 56 55 59 61 61
65 65 64 64 64 63 66 62 62 61 60 61 61 62 63 63 63 64 63 63 62 63 63 63 64 64 63 63 63 62 63 63 63 63 63 63 63 65 65 66 66 66 66 65 63 61 62 62 60 60 61 61 61 62 61 61 60 59 57 55 57 60
65 66 66 65 64 64 64 62 62 62 61 62 61 62 62 62 62 63 63 63 62 62 63 62 62 63 64 63 63 62 63 63 63 63 64 64 64 64 64 65 65 65 65 64 64 64 62 62 61 60 60 60 60 60 60 61 60 59 56 56 56 57
63 63 64 64 65 64 63 63 63 62 61 61 60 60 61 61 61 60 63 62 61 61 62 62 62 62 63 63 63 62 62 62 62 62 63 63 64 64 64 64 65 65 65 64 65 64 63 63 62 62 61 61 59 59 59 59 59 58 58 58 56 57
63 63 63 63 64 63 63 63 62 61 61 61 61 61 60 61 60 60 60 60 61 62 61 61 62 62 62 62 62 62 62 61 62 62 62 62 62 63 63 63 64 65 65 64 64 64 63 63 63 61 62 61 60 59 58 58 58 58 58 57 56 56
64 64 63 64 64 64 63 63 64 64 64 64 63 62 61 60 60 60 59 60 60 62 63 63 62 62 62 62 61 61 62 62 62 62 62 62 62 63 63 63 64 63 63 64 64 63 63 62 62 62 61 61 61 61 60 60 60 60 59 59 60 58
62 62 63 64 65 65 64 63 64 65 65 65 65 65 64 63 62 62 61 60 60 61 61 62 62 61 61 61 61 60 60 61 61 61 62 62 63 64 63 63 63 63 63 62 62 62 62 62 62 61 61 61 61 61 61 61 61 60 60 60 60 58
63 64 65 65 65 65 65 64 63 63 63 63 62 63 63 63 63 62 61 61 60 60 59 60 60 60 61 61 60 61 61 61 61 61 61 62 62 63 64 63 63 63 62 63 63 63 62 63 62 62 63 61 61 61 61 62 62 61 60 59 58 58
63 63 63 64 64 63 63 63 63 63 62 62 61 60 60 61 61 61 60 59 59 58 58 60 60 61 61 61 61 61 61 61 61 61 62 62 63 63 63 63 63 63 63 63 62 62 62 62 62 62 62 61 61 61 62 62 62 62 62 61 60 60
62 62 63 64 63 63 63 63 64 63 63 62 62 60 60 60 60 59 59 58 59 59 60 60 60 60 61 61 60 60 60 61 62 62 63 63 63 63 63 62 62 63 62 64 62 62 62 62 62 63 62 62 61 61 62 62 62 62 62 62 61 61
62 63 63 63 62 63 63 63 62 62 61 60 61 60 58 58 58 59 58 58 58 59 59 59 60 60 60 61 60 60 60 61 62 63 63 63 63 63 63 62 62 62 62 63 62 62 62 62 62 62 62 62 61 61 62 63 62 62 62 62 61 61

ECMWFFLT2_sfc_temp_123.txt.gz
Temp
77 76 77 77 77 77 77 76 76 75 75 75 75 75 76 75 75 76 75 75 74 77 77 77 78 79 75 77 74 74 74 74 74 74 74 74 73 73 73 73 72 72 72 72 73 73 73 73 73 73 73 74 73 78 79 80 80 80 81 81 80 82
75 75 76 76 77 77 77 77 78 78 78 77 76 76 77 79 78 79 75 76 77 77 78 79 77 77 79 77 77 73 74 74 74 73 73 73 73 73 73 72 72 71 71 71 71 78 76 74 73 73 74 73 78 80 79 79 79 81 80 80 81 78
74 75 75 76 76 77 77 77 78 78 78 77 78 78 79 79 79 79 79 78 76 77 78 78 78 78 78 75 76 74 74 74 74 73 73 73 73 73 73 72 71 71 69 69 78 79 79 79 78 73 73 77 80 80 79 79 79 80 80 80 82 75
74 75 76 76 76 76 76 77 77 78 78 78 78 77 78 78 78 78 77 77 76 77 77 77 75 75 76 78 76 73 73 73 73 73 71 74 71 71 71 71 70 70 73 78 80 79 80 78 77 78 79 79 80 80 78 79 80 80 80 79 83 74
74 75 75 76 75 75 76 76 77 77 77 77 77 77 77 76 77 76 76 76 76 75 75 77 77 77 78 77 78 78 77 78 78 78 73 76 76 76 76 77 75 74 78 79 80 78 77 77 77 77 78 79 79 79 79 79 80 80 80 80 80 73
75 74 75 76 75 75 75 74 75 75 75 77 77 76 75 74 73 73 74 75 75 74 75 75 76 75 75 76 76 77 77 77 77 76 76 77 76 75 76 77 77 77 77 79 79 78 76 75 74 74 76 78 79 79 80 80 80 79 79 80 79 73
75 75 75 76 76 76 75 75 75 75 75 74 75 76 75 73 72 73 74 75 74 74 75 74 74 74 74 75 75 75 75 76 76 76 75 77 76 75 76 77 77 76 76 77 80 80 78 76 75 76 74 78 80 80 80 81 80 80 80 79 78 73
75 75 74 75 75 75 75 75 75 75 75 74 75 75 75 72 72 72 74 75 74 74 74 74 74 73 73 74 75 74 75 76 76 77 77 77 76 77 77 77 77 77 77 78 80 80 81 79 77 78 76 75 77 79 79 80 80 79 80 79 80 75
74 74 75 75 75 75 74 74 75 74 74 74 74 74 74 73 72 72 73 74 74 72 72 74 74 74 74 74 73 73 74 75 76 77 77 77 77 77 77 78 77 78 78 78 79 79 80 80 77 77 76 75 75 78 78 78 79 79 79 80 79 79
74 74 74 74 74 74 73 73 74 74 74 75 73 73 73 72 72 72 72 73 73 73 73 73 73 74 75 74 73 73 73 74 74 75 75 76 78 77 77 78 78 78 79 78 78 78 79 79 79 77 78 77 72 75 77 78 78 79 80 79 79 79
74 74 74 74 73 73 73 74 74 74 75 75 72 72 71 72 72 72 72 72 73 73 73 73 74 74 75 75 74 73 74 74 74 73 73 75 77 76 77 77 77 78 79 79 78 79 79 79 80 79 77 78 76 74 74 76 78 79 79 79 79 79
74 74 73 73 72 72 73 74 74 74 74 73 71 70 71 73 73 73 72 72 72 72 72 72 73 74 74 73 74 74 74 74 75 74 74 74 74 76 76 77 76 76 76 77 77 78 78 79 79 81 80 79 78 73 71 72 75 77 78 79 79 78
74 73 72 71 71 72 72 73 73 72 72 71 71 72 73 73 73 72 72 73 72 72 72 72 72 73 72 72 72 72 73 74 74 73 74 73 73 74 75 76 76 76 76 76 76 77 79 78 78 79 79 79 74 72 70 70 71 73 75 77 78 78
73 71 71 71 72 71 71 72 73 72 72 72 71 72 72 72 72 72 72 72 71 71 71 71 71 71 71 70 70 70 71 71 72 71 71 71 72 72 73 74 75 76 75 75 75 76 76 76 78 79 78 77 76 74 71 72 71 72 74 75 77 78
73 72 71 71 71 71 71 72 71 72 72 72 71 71 72 71 72 72 72 72 72 73 72 72 71 70 69 69 69 70 69 70 71 70 70 69 69 69 70 71 73 72 74 75 75 76 75 75 76 77 77 76 76 74 71 73 73 72 73 75 76 77
72 71 70 71 71 71 72 72 72 72 72 71 71 71 72 72 73 72 72 72 72 72 72 72 72 71 69 71 70 70 71 71 71 71 70 69 70 69 70 70 71 71 70 74 74 73 74 74 74 75 75 74 74 72 70 70 72 73 72 72 73 76
71 71 70 71 72 72 71 71 71 71 70 70 71 72 72 72 73 72 72 73 72 72 72 72 72 72 71 71 70 71 71 72 72 71 71 70 69 69 69 69 69 69 69 68 70 70 72 73 73 73 74 73 73 72 72 69 68 70 72 71 72 74
70 71 70 71 72 72 72 72 72 72 71 71 71 72 74 73 73 72 72 73 72 72 72 73 73 72 71 71 71 72 72 73 73 72 71 72 71 72 71 70 70 70 69 68 69 70 70 72 73 72 72 72 73 73 73 71 69 68 69 71 71 73
70 69 70 71 70 70 70 71 72 71 71 71 72 72 73 73 74 73 73 72 72 71 72 72 72 72 71 70 71 72 72 73 73 72 71 72 72 72 71 71 70 69 69 68 68 69 69 70 70 70 70 71 71 70 70 70 69 68 67 69 70 71
69 69 70 69 69 69 70 70 69 70 70 72 74 74 74 75 73 73 72 71 71 71 72 72 72 72 71 71 71 71 72 72 71 71 70 70 71 72 70 70 69 69 69 70 69 68 68 68 69 67 67 68 68 69 69 69 69 68 67 66 67 69
69 69 69 68 69 69 69 69 70 71 72 74 74 74 74 74 73 73 72 72 71 71 72 71 72 71 70 70 71 72 72 71 72 71 70 70 70 70 71 70 69 70 68 68 68 69 68 67 64 64 65 66 66 69 69 70 69 69 68 65 66 67
69 69 69 70 70 70 71 72 73 73 72 73 73 72 74 75 73 72 72 72 72 73 72 71 71 72 70 70 71 71 72 71 71 71 70 70 70 70 70 71 71 68 70 68 67 68 67 65 63 64 63 64 66 68 69 69 69 70 69 67 66 67
69 69 70 71 71 70 71 72 72 71 72 73 74 75 76 75 75 74 73 73 74 73 73 72 71 72 70 70 70 70 71 71 70 69 68 69 70 69 69 70 70 69 68 69 67 68 66 66 64 66 65 62 61 63 67 67 69 70 71 69 67 67
70 70 70 71 72 72 71 71 73 72 73 74 74 75 73 73 73 73 74 75 75 73 73 73 73 72 71 70 70 69 70 70 70 69 68 68 70 70 70 70 70 70 69 67 67 66 67 67 65 64 60 62 65 65 63 66 67 69 71 70 69 67
71 70 70 71 71 71 70 69 69 70 71 71 72 73 73 73 73 73 73 74 74 74 73 72 72 72 72 71 71 70 70 70 69 69 69 68 68 68 70 71 72 70 70 68 68 67 67 66 66 69 67 63 61 60 63 67 68 68 69 67 67 67
71 70 69 70 71 71 70 69 68 69 69 70 70 71 71 72 73 73 74 75 74 74 72 71 71 71 72 71 71 71 70 69 69 68 68 67 67 67 68 68 70 70 69 70 68 68 66 67 66 67 69 70 69 65 65 67 65 64 68 69 68 69
70 69 69 70 71 72 70 70 71 72 73 72 71 72 73 73 74 74 74 73 72 70 70 71 71 72 72 72 71 70 70 69 69 68 68 67 66 67 68 68 69 68 68 69 68 65 67 69 66 65 66 67 68 68 67 64 62 65 63 67 66 66
69 68 69 71 71 73 73 72 72 72 72 73 72 72 73 73 72 72 71 71 70 69 69 71 72 72 73 72 71 69 69 69 68 68 67 66 67 67 68 68 68 68 69 69 67 64 65 66 64 65 66 65 65 67 66 66 66 64 63 61 64 67
69 69 70 71 72 72 73 73 73 72 71 72 73 73 73 72 72 70 71 71 70 69 70 70 73 72 71 71 70 70 69 68 68 69 69 68 67 68 67 67 67 67 66 66 67 67 65 64 65 64 65 63 64 65 64 64 64 65 61 61 63 63
68 70 71 71 72 72 72 72 72 72 71 71 72 72 72 71 71 71 71 70 70 70 71 71 70 70 71 71 70 70 69 69 69 69 69 69 69 69 69 69 69 68 69 68 67 67 66 66 66 66 65 66 65 64 64 63 62 62 62 62 60 61
69 71 71 71 72 72 72 73 72 72 72 71 71 71 71 71 71 71 71 71 71 72 72 71 71 71 71 71 70 70 69 70 69 69 68 68 69 68 68 68 69 69 68 67 68 68 67 66 66 65 64 63 63 65 65 64 64 64 62 60 59 60
68 69 70 70 70 70 71 71 72 72 71 71 70 71 70 69 70 70 70 70 71 72 71 71 70 70 70 70 70 69 69 69 69 69 68 69 69 69 69 69 69 68 67 67 68 67 67 67 67 66 66 65 63 64 65 66 69 69 66 64 63 62
66 66 67 69 70 70 71 71 72 71 70 70 70 70 70 69 69 70 71 70 70 70 70 69 68 68 67 67 67 67 68 68 68 68 68 68 68 69 68 68 69 69 68 68 68 67 65 66 67 66 66 67 65 64 63 64 64 64 66 67 65 60
65 66 67 68 69 69 69 69 70 70 70 70 69 69 70 69 69 70 70 69 69 68 68 67 66 65 65 66 66 67 67 68 68 68 67 66 66 66 66 66 67 67 68 69 68 66 65 66 66 66 66 66 67 66 64 66 66 65 63 62 61 61
65 66 67 67 68 68 68 69 69 70 70 70 69 69 69 69 69 69 69 69 68 68 67 66 65 65 67 67 67 67 68 68 68 67 67 67 68 67 67 67 67 68 68 68 68 67 66 66 66 67 66 65 67 67 66 66 65 64 65 64 63 63
66 65 66 66 66 67 67 68 68 68 68 69 69 69 69 69 68 68 67 67 66 66 65 65 65 66 67 67 66 66 67 68 69 68 67 68 68 67 68 67 67 68 68 69 68 67 66 67 67 67 67 67 67 66 67 66 65 64 64 65 64 64
65 65 66 66 66 66 67 67 67 68 68 68 68 67 67 66 67 67 67 67 66 66 65 65 65 66 67 67 66 67 67 67 68 68 67 67 67 68 68 68 67 67 67 68 67 67 67 67 67 67 66 66 65 66 66 66 66 65 65 64 65 64

ECMWFFLT2_sfc_temp_129.txt.gz
Temp
83 83 83 83 82 81 79 77 77 76 76 75 76 76 76 76 75 76 77 76 76 80 80 79 79 81 76 79 74 74 74 74 74 75 74 75 75 74 75 74 74 74 74 74 74 73 74 74 74 73 74 74 74 78 83 89 89 89 91 90 86 82
83 83 83 82 82 81 79 80 81 80 79 78 76 76 78 79 79 80 77 78 80 80 81 82 82 80 81 78 78 74 74 74 74 74 74 74 74 74 74 74 74 74 73 74 73 79 78 75 73 74 74 74 77 81 87 87 87 90 90 89 83 78
83 83 82 83 82 82 81 83 83 82 81 79 80 80 80 81 81 81 81 82 80 79 84 84 83 83 82 78 77 74 74 75 74 74 74 74 74 74 74 74 73 74 73 73 77 83 85 83 80 73 74 77 79 82 87 87 87 88 90 88 83 75
83 83 83 83 83 82 82 83 83 84 83 82 82 82 83 82 82 80 81 81 79 81 84 82 82 81 80 80 77 74 74 74 74 74 74 75 73 74 74 73 74 73 74 80 84 86 88 87 85 82 81 82 83 86 85 86 89 89 89 89 84 75
84 84 84 84 83 83 83 84 85 85 85 83 84 84 84 84 82 82 80 80 83 84 85 84 83 82 84 82 80 79 78 79 79 79 74 81 80 82 77 84 81 78 83 85 87 87 89 88 86 85 84 85 86 86 85 85 86 90 90 86 80 74
84 84 84 84 85 85 84 85 85 85 85 85 85 85 85 84 84 83 82 83 84 83 84 85 83 84 83 83 82 81 81 82 83 83 79 82 84 83 83 86 85 84 85 86 88 89 89 88 87 86 86 85 85 85 86 86 86 86 88 84 78 74
83 83 84 87 86 86 86 86 86 86 84 84 85 84 85 85 85 84 84 83 82 84 84 84 83 84 84 85 85 84 83 83 83 85 84 85 86 85 86 87 87 85 87 88 89 89 88 88 87 89 86 86 86 86 85 86 87 85 87 86 79 74
83 84 84 87 86 86 87 86 85 84 84 85 84 84 86 85 84 83 84 83 83 85 84 85 84 84 84 85 85 86 86 86 85 87 86 85 86 85 86 87 87 87 87 88 90 89 89 89 88 87 88 86 86 85 85 86 85 84 87 85 81 75
83 84 86 85 84 86 87 86 85 85 86 84 85 85 85 84 84 85 84 84 84 83 85 84 84 84 85 84 84 84 85 85 86 87 86 85 86 86 85 86 86 86 86 86 87 87 89 89 87 87 87 87 86 87 85 85 84 85 85 86 80 78
83 85 85 85 83 85 85 85 85 84 86 84 86 86 84 84 85 85 84 84 83 82 83 84 84 84 84 82 82 82 83 84 84 85 85 84 85 85 85 86 86 85 87 87 86 87 88 88 90 88 88 87 85 86 86 85 84 85 86 84 81 76
84 84 84 84 84 83 83 84 84 85 85 83 86 84 83 84 85 84 83 82 83 83 82 84 84 83 82 82 82 82 83 84 83 83 83 83 84 84 84 84 84 85 86 87 87 88 89 87 88 90 89 89 87 86 85 85 85 85 84 83 82 74
84 83 82 84 83 82 83 83 83 85 84 84 84 84 84 84 83 83 82 82 82 82 82 81 82 81 82 82 82 77 77 77 80 82 82 83 83 83 83 84 84 84 83 83 84 86 86 86 86 89 90 90 88 86 86 84 84 84 84 83 84 78
84 82 82 82 82 82 83 83 83 84 84 84 84 84 83 82 82 82 81 81 80 80 81 80 80 82 82 83 82 81 78 76 79 80 79 80 81 82 83 82 81 82 82 82 82 83 86 85 85 86 87 87 85 83 83 85 84 83 83 83 83 83
82 81 82 82 81 83 82 83 84 85 84 83 84 84 82 82 82 82 82 81 81 82 82 82 82 81 82 82 81 81 82 81 82 81 79 80 81 82 83 83 82 82 81 80 79 81 82 81 82 82 84 84 83 83 84 79 79 83 83 82 83 84
80 81 81 81 81 82 82 83 85 85 83 82 83 82 81 82 82 83 83 82 82 82 83 82 82 81 81 82 81 81 81 83 82 81 81 81 80 81 81 80 82 82 82 81 81 80 80 80 79 82 82 81 79 82 81 82 81 79 81 82 82 83
80 80 80 80 81 82 82 82 84 83 82 81 82 81 82 82 83 83 83 82 82 82 82 82 82 82 80 81 82 81 81 81 81 81 81 80 80 80 80 80 80 80 79 81 82 80 81 78 81 80 80 80 80 78 81 78 77 77 80 80 82 82
79 79 79 80 81 81 81 82 83 81 81 80 81 81 83 83 83 83 83 83 82 82 82 82 82 82 80 81 82 82 82 81 81 81 80 80 80 80 79 79 79 80 80 79 82 80 80 80 80 80 80 79 79 79 79 80 77 75 75 73 76 76
80 80 79 79 80 80 81 82 83 82 80 81 81 83 83 83 82 83 83 83 82 81 81 82 82 82 80 81 82 81 82 81 81 80 79 80 80 81 80 79 77 79 80 78 79 79 79 79 80 80 79 79 79 78 79 79 79 73 74 75 77 75
78 78 78 79 79 80 80 80 81 79 79 80 81 82 83 83 83 83 83 83 83 81 82 82 81 81 80 81 82 82 81 81 81 80 79 79 80 80 79 79 77 77 79 79 79 79 79 79 79 78 78 78 78 78 80 79 79 77 77 77 78 76
77 77 78 78 79 80 80 78 77 78 79 80 81 81 82 83 83 84 83 82 83 81 83 81 82 82 80 79 81 81 80 80 80 80 79 78 79 80 78 78 77 77 77 78 79 79 79 78 78 77 77 77 78 78 78 79 79 79 78 78 76 77
74 76 77 78 77 78 76 76 76 78 78 79 80 81 81 81 83 83 83 83 82 82 82 82 82 81 79 79 80 81 80 80 82 80 79 78 79 79 79 79 78 77 76 76 77 79 79 78 75 74 76 76 76 78 78 77 77 77 78 79 78 76
73 74 72 74 75 76 76 77 76 77 79 80 81 81 80 82 82 82 83 82 82 82 83 82 82 82 80 81 80 81 80 80 80 80 80 80 79 78 79 78 78 77 78 75 75 78 79 77 73 72 72 73 75 78 78 77 77 77 76 76 76 76
72 72 70 69 68 68 72 75 78 79 77 81 83 83 84 83 82 82 81 82 83 82 83 83 82 82 81 80 80 80 80 81 80 80 78 78 78 77 77 77 77 75 75 78 78 79 78 77 72 75 75 72 70 70 76 76 76 76 77 77 76 75
67 67 67 66 65 68 69 70 74 77 83 82 82 82 82 82 82 81 81 83 83 83 83 83 83 83 82 81 80 80 80 80 80 79 78 76 77 78 78 78 77 77 76 73 75 76 78 77 76 73 68 70 71 71 68 71 74 75 77 76 75 75
66 68 69 68 67 68 68 69 73 81 82 81 82 81 80 80 81 82 81 82 82 83 83 82 82 82 83 81 81 80 80 80 79 79 79 78 78 78 78 80 78 76 76 73 72 74 76 77 76 77 72 69 69 68 70 73 73 73 74 72 74 74
66 66 68 69 69 69 68 66 70 74 75 77 77 78 78 78 80 81 81 82 82 82 82 82 82 82 82 81 80 80 79 79 79 79 78 77 77 77 77 78 79 78 76 75 72 73 73 76 76 74 76 73 72 68 68 69 68 64 73 74 74 73
66 67 69 72 70 69 66 67 69 77 79 78 78 79 82 81 81 82 81 80 80 81 82 81 80 81 81 81 80 80 79 79 79 78 78 77 76 76 77 78 79 78 78 77 75 71 72 74 76 75 74 74 74 73 72 67 64 66 64 71 69 68
68 69 72 71 70 70 68 67 73 79 80 80 79 79 80 80 81 81 80 80 80 80 80 81 79 80 81 80 79 78 78 78 78 78 77 76 76 76 77 77 77 77 76 76 75 73 73 74 72 73 75 71 70 72 72 72 70 64 63 62 69 74
70 71 71 70 70 71 71 71 75 79 79 81 80 80 82 81 81 81 79 80 80 80 79 80 81 80 79 80 79 79 78 78 77 77 79 77 77 77 76 75 75 75 75 75 75 75 74 74 73 73 73 72 71 71 72 72 70 67 60 61 66 68
71 71 70 70 68 69 68 71 78 79 78 79 81 81 82 80 79 79 78 78 78 78 78 78 77 80 79 80 79 79 78 78 77 77 77 77 78 77 76 76 75 75 75 74 74 75 74 74 75 74 74 73 70 70 70 70 68 66 64 63 62 66
70 68 67 67 68 70 67 76 80 79 79 79 79 79 78 77 78 78 77 77 77 78 78 77 78 78 78 78 77 78 77 77 77 77 77 76 76 76 76 76 76 76 75 74 74 73 73 73 73 73 74 73 71 71 68 67 67 67 66 66 66 65
64 66 67 68 68 69 73 80 80 80 79 78 79 78 77 76 77 77 77 76 77 76 76 78 77 77 76 76 76 75 76 76 77 77 76 76 76 77 77 76 75 75 74 74 74 74 74 73 73 74 73 74 73 73 71 69 71 70 68 65 62 62
63 65 66 66 66 70 73 78 79 79 78 79 78 78 77 76 78 77 77 76 75 75 76 76 76 75 75 75 74 73 74 74 75 75 75 76 76 76 75 75 75 74 74 74 74 74 74 73 73 73 73 74 74 73 72 73 69 67 69 67 64 60
68 68 68 67 67 68 73 78 78 78 78 78 76 77 77 76 77 76 76 75 75 75 74 74 74 73 74 74 74 74 74 74 75 76 76 76 75 76 75 75 74 74 73 74 74 73 73 73 73 74 74 74 74 73 73 73 70 68 69 68 65 64
70 70 70 68 66 66 67 74 78 78 78 78 77 77 77 76 76 75 74 74 74 74 73 73 74 74 74 73 73 73 74 74 75 75 75 75 75 75 75 74 74 74 74 74 74 75 75 74 73 74 74 73 73 74 74 74 71 69 71 71 69 66
71 72 72 68 67 68 68 73 77 76 77 77 77 77 76 75 75 74 73 73 73 72 72 72 73 73 73 73 73 72 73 74 75 74 74 74 74 74 74 73 73 73 73 75 74 74 73 74 74 74 73 74 74 72 73 75 72 70 69 72 70 65
73 73 73 72 71 73 73 75 75 76 76 75 74 74 73 73 73 73 73 73 72 72 72 71 71 73 72 73 73 72 72 72 73 72 72 73 72 72 73 73 73 73 73 74 74 73 73 74 74 73 73 74 73 73 74 73 71 67 69 71 69 65

ECMWFFLT2_sfc_temp_132.txt.gz
Temp
78 79 79 78 78 78 77 77 76 76 76 76 76 76 76 76 76 76 76 76 75 76 75 75 75 76 75 75 75 74 75 74 75 75 75 75 75 75 75 75 75 75 74 75 74 74 74 74 74 74 74 74 75 73 75 77 83 82 83 78 77 75
79 79 79 78 78 78 77 77 77 76 76 76 76 76 76 76 77 76 76 75 76 77 76 76 76 77 76 75 75 74 74 74 74 75 74 75 75 74 74 75 74 74 74 74 73 73 74 74 74 74 74 74 73 74 76 78 80 83 80 78 76 74
79 79 79 78 78 77 77 78 78 78 77 76 77 77 77 77 77 77 77 77 76 77 78 78 77 78 77 76 75 74 74 74 74 74 74 74 74 74 75 74 74 74 74 73 73 74 77 76 73 74 74 73 73 75 77 80 80 81 81 79 76 75
79 79 79 79 78 77 77 78 79 79 77 77 77 77 78 78 78 78 77 77 75 77 79 78 81 81 79 75 74 74 74 74 74 74 74 74 74 74 75 74 74 74 73 75 75 77 80 80 77 74 73 73 76 78 79 79 80 82 81 79 76 75
80 80 80 79 78 77 78 79 80 80 79 78 78 78 78 78 78 78 78 76 78 77 79 79 78 77 77 76 74 74 74 74 73 73 74 73 73 77 73 77 75 73 75 77 79 79 81 80 79 77 76 76 77 80 79 79 78 79 80 78 74 74
80 81 80 79 78 79 79 78 79 80 79 79 79 79 79 78 78 78 78 78 79 78 78 78 78 77 78 76 76 75 75 75 75 76 74 74 75 75 74 76 77 77 75 77 78 79 81 79 78 78 78 78 79 78 79 79 80 78 78 75 74 75
80 81 80 80 80 80 79 79 79 80 79 79 80 79 80 79 78 78 78 78 77 78 78 78 77 78 78 78 77 78 77 77 77 77 75 75 77 77 76 77 77 77 78 79 81 83 83 83 81 83 80 81 79 80 79 79 79 79 77 74 74 74
81 81 80 81 80 80 80 80 80 80 80 80 80 79 80 79 79 79 79 79 79 79 78 77 77 77 78 79 79 78 78 78 78 78 77 77 78 79 78 78 79 81 81 82 84 83 82 84 82 80 82 80 80 78 77 78 78 78 79 73 74 74
81 81 82 81 81 81 81 81 80 80 79 80 79 79 80 80 79 79 79 79 79 78 78 79 78 78 79 78 78 78 78 78 79 79 79 78 79 79 78 78 78 79 80 79 79 79 82 83 81 80 80 81 80 80 78 78 78 79 78 74 74 74
80 82 81 81 80 80 81 80 80 79 79 79 79 79 80 79 79 79 79 79 79 78 77 79 78 79 79 78 77 78 77 77 77 78 77 78 79 79 79 79 78 79 80 80 80 80 79 81 83 81 82 81 79 80 78 77 77 78 78 76 73 73
82 80 80 80 79 80 80 79 80 80 80 80 80 79 79 79 79 79 79 79 79 79 77 78 79 78 77 77 77 75 75 76 77 76 78 76 76 76 77 77 78 77 78 79 77 78 79 78 81 84 83 83 79 78 77 76 76 78 77 78 74 73
81 80 79 80 80 80 80 80 79 80 79 79 80 79 79 79 79 79 79 78 78 79 77 77 77 79 77 76 75 76 75 75 75 76 77 76 75 75 77 79 77 77 77 77 77 77 78 77 77 79 82 82 79 72 72 74 76 77 77 77 76 74
82 79 80 79 79 79 80 80 79 80 79 80 79 79 79 79 79 79 78 79 78 79 77 76 76 76 76 77 75 75 75 75 76 76 76 77 78 77 76 76 76 77 76 76 76 76 80 77 77 77 78 80 77 75 74 74 75 75 74 74 75 74
79 79 79 79 78 79 79 79 79 80 79 79 79 79 78 79 78 78 78 78 78 78 77 77 77 76 75 75 76 76 75 75 75 77 76 75 76 75 75 76 76 76 76 75 75 75 75 75 76 77 77 76 76 75 75 76 73 74 73 74 75 74
78 78 78 78 78 79 79 79 80 79 79 79 79 79 78 78 78 78 78 78 78 77 78 78 78 77 76 76 76 76 76 76 77 77 76 76 75 75 75 75 75 75 75 74 75 75 75 74 75 77 76 76 75 76 75 74 74 74 75 74 74 74
78 77 78 77 78 78 78 79 79 80 78 78 79 79 78 78 78 78 78 78 79 79 79 79 79 78 76 77 77 77 76 76 77 76 77 75 76 75 75 75 75 75 73 75 76 75 75 74 74 75 74 75 75 75 74 74 74 74 75 75 74 73
77 77 78 78 78 78 79 79 79 78 78 78 78 77 78 78 78 78 79 79 78 78 78 79 79 78 77 77 77 77 77 77 78 76 75 76 75 75 74 75 74 74 74 72 75 75 74 74 74 74 75 74 75 74 74 74 73 73 75 73 72 73
77 78 77 77 78 77 78 79 78 78 77 77 78 77 78 78 78 79 79 79 79 78 78 78 78 78 76 77 78 77 77 77 77 76 75 75 74 76 75 75 73 74 74 73 72 73 73 74 75 74 74 74 74 73 73 73 74 73 73 73 72 72
77 77 77 78 78 78 78 77 76 76 75 75 74 75 76 77 77 78 78 79 79 78 78 78 79 78 77 77 77 78 77 77 77 76 75 75 74 75 75 74 73 73 74 74 73 73 73 73 74 74 74 73 73 73 73 74 74 73 73 73 73 74
76 76 77 76 74 73 71 66 66 67 72 73 72 74 76 77 78 78 79 79 78 77 79 78 78 78 77 76 76 77 77 77 76 76 74 73 74 75 74 74 73 73 72 73 74 74 74 73 72 72 71 72 73 73 73 73 73 74 74 74 73 73
70 69 69 67 66 65 66 65 65 65 65 67 70 73 76 77 78 78 79 79 79 78 78 78 78 78 76 77 76 77 77 77 77 75 74 74 74 75 75 74 74 73 72 71 71 73 73 73 70 69 70 71 71 73 73 73 73 73 74 73 72 72
67 67 67 67 66 66 66 66 65 64 65 65 66 67 74 76 77 79 78 79 79 79 78 78 78 77 77 76 76 76 76 75 75 76 76 76 75 75 74 74 74 71 73 71 70 72 73 72 68 67 66 67 68 70 72 73 73 73 73 73 73 73
66 67 67 67 68 67 66 67 66 66 65 66 67 68 70 75 77 78 78 79 79 79 79 78 79 78 77 77 76 76 76 76 75 74 72 73 72 72 72 73 73 71 70 72 72 73 73 71 65 68 68 66 64 64 69 70 71 72 73 73 73 72
68 69 68 68 68 68 69 69 69 68 68 67 66 67 68 73 77 77 77 79 78 78 79 78 79 79 79 78 77 76 77 77 75 74 72 71 71 73 73 72 72 71 70 67 70 71 72 72 71 67 62 64 65 65 61 65 67 69 72 72 72 72
69 68 69 68 69 69 68 67 68 68 68 67 67 67 66 69 75 76 77 77 78 79 80 79 79 80 80 78 77 76 76 75 75 75 75 73 72 72 73 74 74 72 71 69 68 69 71 72 71 71 66 62 62 62 62 64 64 66 69 69 69 70
69 69 69 69 69 69 68 67 66 65 64 64 64 64 64 68 74 74 75 78 79 79 80 79 79 79 80 78 77 78 77 76 75 74 74 73 73 73 72 73 74 73 72 72 69 68 68 71 71 71 71 68 66 61 60 62 61 58 67 70 70 71
69 70 70 70 70 69 68 67 67 67 67 66 66 68 68 73 75 76 77 77 77 78 80 77 77 78 78 77 77 76 75 75 75 75 74 73 72 72 72 73 74 72 72 71 70 67 67 68 70 70 71 70 68 65 65 61 59 61 58 65 67 67
70 70 70 70 70 70 69 68 68 68 69 69 69 72 74 75 77 76 76 75 76 76 77 77 76 78 77 77 77 75 76 75 74 74 74 73 72 73 73 73 72 72 72 71 70 68 67 68 66 67 70 69 69 68 68 66 65 61 59 57 61 66
69 70 71 70 70 70 70 69 69 69 68 70 72 70 76 76 75 76 75 76 76 76 76 75 77 77 78 78 76 75 75 74 73 74 75 74 73 73 72 71 71 70 70 70 70 70 68 68 68 67 67 67 68 67 67 67 66 63 60 58 59 61
70 71 71 71 71 70 71 69 68 66 66 66 65 65 75 74 75 75 74 74 75 74 75 75 75 77 76 77 75 75 74 74 73 73 73 73 72 72 72 72 71 71 71 70 70 70 68 68 68 68 68 67 66 66 66 65 64 62 62 62 58 59
71 72 71 70 71 69 69 67 67 66 66 65 65 66 69 73 73 74 74 74 74 73 74 74 74 75 75 75 73 73 72 73 73 73 72 72 71 71 71 71 71 71 71 70 69 69 69 69 69 68 68 68 66 65 64 62 61 61 60 59 60 60
71 71 70 70 69 69 67 67 67 67 66 65 65 65 67 72 73 73 73 73 73 74 73 74 74 73 72 72 72 71 72 72 72 71 71 72 71 72 71 71 70 70 70 70 70 70 69 68 68 68 68 68 67 67 66 63 63 62 61 60 60 59
69 69 68 69 68 68 68 68 68 67 66 66 65 66 68 72 73 73 74 73 73 72 72 72 71 71 71 71 70 70 70 70 70 71 71 71 71 71 71 70 70 70 70 69 69 69 68 68 68 67 67 68 68 68 66 64 63 62 63 63 61 58
69 68 69 69 68 67 67 67 67 66 66 66 67 65 69 73 73 73 73 72 72 71 71 71 71 69 70 71 71 71 71 70 71 71 71 70 70 71 71 71 70 69 70 70 70 69 69 69 68 69 69 67 68 68 68 67 64 63 62 62 60 59
69 68 69 68 68 67 66 67 66 66 65 65 65 66 70 73 73 72 72 72 71 71 70 70 70 70 71 70 70 70 70 70 70 70 70 70 70 70 70 70 70 69 70 70 70 69 69 69 69 68 68 68 66 67 66 67 65 65 65 63 62 61
68 68 68 68 68 67 67 67 67 66 66 65 65 68 72 72 72 72 72 72 70 69 69 69 70 70 71 70 70 69 69 69 70 69 69 69 69 69 68 68 68 69 69 71 70 69 69 69 68 69 67 67 66 65 67 67 67 65 64 65 64 63
68 69 69 69 68 68 68 68 68 68 68 69 71 72 71 71 71 71 71 70 70 70 69 69 69 71 71 71 69 68 68 68 68 69 69 68 68 68 68 68 67 68 68 69 69 68 68 68 69 68 67 66 65 65 66 67 67 66 65 64 64 63

ECMWFFLT2_sfc_temp_135.txt.gz
Temp
73 73 73 73 73 74 75 76 76 76 76 76 76 76 76 76 75 75 75 75 74 72 70 70 71 70 75 71 74 74 75 75 75 75 75 75 75 75 75 75 74 74 74 74 74 74 73 73 74 74 74 74 74 70 69 70 73 74 74 72 72 72
73 73 73 73 74 74 75 75 74 74 74 75 75 76 75 74 76 73 75 74 71 72 70 70 70 74 70 72 72 74 74 74 75 75 74 75 74 74 75 74 75 75 74 74 73 69 70 72 74 74 74 74 71 69 70 71 73 74 74 71 71 73
73 72 72 73 74 74 73 73 73 73 74 75 75 75 73 75 72 72 72 72 71 72 71 71 70 73 72 73 72 74 74 74 74 74 74 74 74 74 74 75 75 74 74 73 70 68 69 69 69 73 74 71 67 68 70 72 72 73 73 72 71 75
73 73 72 72 73 72 73 73 73 73 73 72 73 73 73 72 72 72 72 71 71 73 73 71 76 78 76 71 71 73 74 74 74 74 74 73 74 74 74 75 75 74 72 71 68 68 70 71 70 69 68 67 67 69 71 72 72 73 73 75 73 75
74 74 73 72 72 72 72 73 73 73 72 72 72 72 72 72 72 72 72 71 72 72 73 72 72 71 69 69 68 68 69 68 68 67 73 66 66 70 70 69 68 70 68 68 70 70 71 72 72 71 70 69 70 71 72 73 74 72 73 73 72 75
75 74 73 72 72 73 73 72 72 73 72 72 72 72 72 73 73 73 72 72 73 72 72 72 72 71 70 69 69 68 69 69 68 68 70 67 66 67 66 68 69 70 68 68 69 71 72 72 72 71 71 70 72 72 73 73 73 71 71 70 72 75
75 74 73 73 73 73 71 72 72 73 72 72 72 72 72 72 73 73 73 73 72 71 71 72 72 71 70 70 69 69 69 69 69 69 69 68 68 69 68 68 68 70 70 70 72 74 74 75 73 74 73 74 73 74 74 74 73 71 70 70 72 74
75 74 73 74 73 73 71 72 72 75 73 73 73 72 72 72 73 73 73 73 74 72 71 71 72 71 71 71 70 70 70 70 70 71 71 70 70 70 70 69 70 71 72 73 74 75 75 77 77 76 75 75 74 74 74 72 72 71 70 69 71 74
75 74 74 74 73 73 73 73 72 73 72 75 73 73 73 73 73 73 73 74 74 71 71 73 71 72 71 71 71 71 70 71 71 71 71 70 70 71 71 71 70 71 71 73 73 74 74 74 73 74 76 75 75 75 74 73 72 71 70 69 69 72
75 75 75 74 73 73 73 72 72 73 73 74 73 73 73 73 73 73 72 73 74 71 71 70 72 71 71 70 70 72 72 70 71 71 71 71 70 70 70 70 70 71 71 72 72 73 72 72 74 73 74 75 73 74 72 72 72 72 71 70 69 70
76 75 75 74 74 73 73 73 73 73 74 73 73 73 74 73 73 73 73 73 72 72 71 70 72 70 70 70 71 70 70 70 70 70 70 70 70 70 70 70 71 70 71 71 71 71 72 72 73 75 75 76 72 70 69 70 71 72 71 70 69 69
75 75 75 75 74 73 73 74 73 73 74 73 73 73 73 74 73 72 72 72 71 71 70 70 71 71 71 70 70 70 69 70 70 70 71 71 70 70 71 71 72 73 71 71 71 71 73 71 72 73 73 74 72 71 69 70 71 72 71 70 69 69
75 76 75 74 73 73 74 75 73 73 73 74 73 73 73 72 72 73 72 72 70 71 70 71 70 70 71 70 70 70 70 69 70 69 71 71 71 70 71 71 71 72 71 71 71 72 74 72 71 72 73 74 72 68 69 69 69 69 70 70 69 69
74 75 74 73 72 74 74 74 73 73 73 73 73 72 72 72 72 72 72 71 71 71 71 71 70 70 70 70 70 70 70 70 69 70 70 71 70 69 69 69 70 71 72 71 70 70 69 71 70 70 71 70 70 70 68 69 68 69 70 71 70 69
74 73 73 72 72 74 73 73 72 72 72 72 73 71 71 72 72 72 73 71 72 71 71 71 71 70 70 70 70 70 69 71 69 69 71 69 70 69 69 69 69 70 70 68 68 69 70 70 70 72 71 71 72 71 68 69 68 69 70 70 70 70
72 72 72 72 72 73 73 72 72 73 72 71 71 72 71 72 73 72 72 72 71 72 72 71 71 71 70 70 70 70 70 70 70 70 70 70 70 69 68 69 69 69 68 69 69 69 68 68 69 70 70 70 70 69 70 70 69 69 70 70 70 70
72 72 72 72 72 73 73 72 72 72 73 71 71 71 71 72 73 73 72 71 71 72 71 71 71 71 71 70 70 70 70 70 70 71 69 68 69 68 68 70 68 68 69 66 68 67 68 69 69 69 69 69 70 71 70 70 69 70 71 70 69 70
72 73 73 72 73 73 72 72 72 73 72 71 70 70 69 69 69 70 73 72 72 72 72 71 71 71 70 70 71 71 70 70 70 69 68 70 69 68 68 67 67 66 68 68 66 66 67 68 70 70 69 68 68 68 68 69 69 70 69 69 69 69
72 72 72 72 72 69 69 68 68 68 67 66 66 66 67 67 67 66 69 72 72 72 72 71 72 71 70 70 70 70 69 70 70 69 69 68 67 68 69 69 68 68 68 68 67 67 68 68 69 69 69 69 69 69 69 69 70 68 68 69 70 71
71 71 70 70 68 67 67 66 65 65 65 66 66 66 67 67 67 67 68 68 72 71 72 71 71 70 70 71 70 69 69 70 70 70 69 68 67 67 67 67 67 67 66 66 67 68 68 68 67 67 67 68 68 69 69 70 70 70 69 69 69 69
68 68 67 66 65 65 65 64 64 64 64 65 65 65 65 66 67 68 68 67 70 72 72 71 71 70 69 72 70 69 70 70 69 70 69 68 67 68 68 68 68 67 68 66 66 67 67 67 66 64 64 65 66 68 68 69 69 69 69 69 68 68
65 66 66 66 65 65 65 64 64 63 63 64 64 64 64 66 67 67 67 68 71 72 72 71 70 70 70 69 69 69 69 70 70 69 69 69 69 69 69 69 69 67 67 67 66 67 68 68 63 62 61 62 63 66 67 67 67 68 68 68 69 68
65 65 65 66 65 64 64 65 64 64 64 64 65 66 66 67 68 67 67 68 71 72 72 71 71 71 71 70 70 69 69 69 69 68 68 68 68 67 67 68 67 66 65 66 66 68 67 66 62 63 63 61 58 60 61 62 63 66 68 68 69 69
65 65 65 66 66 65 65 65 65 65 65 65 64 66 66 67 67 66 67 70 73 73 73 73 72 73 73 71 70 70 70 69 68 67 66 66 66 67 66 67 67 67 66 64 64 64 67 66 64 63 59 59 59 58 56 57 60 65 67 67 66 67
66 65 65 66 66 66 66 65 65 65 65 64 65 64 64 64 65 66 68 70 73 73 73 73 72 73 74 71 70 68 69 69 68 68 68 66 67 68 68 68 68 66 66 66 64 63 64 66 66 65 62 59 58 57 57 59 60 63 64 63 65 68
65 65 65 66 66 65 65 64 63 62 62 61 62 62 62 63 64 65 68 72 74 73 73 72 72 74 71 70 69 69 68 68 67 68 68 67 67 67 66 67 67 67 66 65 65 63 61 64 65 66 65 63 64 59 59 60 59 57 63 65 65 65
66 65 66 66 66 66 64 64 64 64 64 63 62 62 64 65 67 68 70 71 73 72 72 71 70 69 69 69 69 69 68 68 67 67 67 67 66 66 66 67 67 66 66 65 64 62 61 62 63 62 65 64 63 63 63 59 57 60 58 62 62 63
66 66 66 66 66 66 65 64 64 64 64 64 64 64 65 65 67 69 70 72 71 70 70 70 70 70 70 69 68 68 67 67 67 67 68 66 66 66 67 67 66 66 65 65 64 63 62 62 61 62 63 64 63 63 62 62 62 59 58 57 60 63
67 66 66 67 67 66 66 65 65 65 65 65 65 64 64 65 64 64 62 66 70 69 69 69 69 69 69 69 69 68 67 67 66 66 67 67 66 67 67 66 65 65 64 65 64 65 63 62 62 63 62 62 63 62 61 62 62 60 58 57 58 59
66 67 67 67 67 66 66 66 65 64 64 63 63 63 64 64 64 64 63 64 68 68 68 68 69 69 68 68 67 67 67 66 65 66 67 65 65 65 65 64 65 65 64 63 63 64 64 64 64 63 62 63 61 61 60 59 59 59 58 58 57 58
66 67 67 67 67 66 66 66 64 64 64 63 63 63 62 62 63 63 63 65 67 68 68 68 67 67 67 67 66 67 66 66 66 66 66 64 64 64 64 64 64 64 64 64 63 63 63 63 63 62 63 62 61 61 61 60 59 58 58 58 58 59
66 67 67 67 67 66 65 65 64 64 64 64 64 63 62 61 63 64 64 64 67 67 67 66 65 65 65 65 65 64 64 64 65 64 64 65 65 65 65 64 64 64 64 63 63 64 63 62 62 63 62 63 63 63 63 61 61 61 60 58 58 58
66 67 67 67 66 65 64 64 64 64 64 64 63 63 62 62 63 63 62 63 66 65 65 64 63 64 63 64 64 64 64 63 64 64 64 64 64 65 64 64 64 64 64 64 64 63 63 64 64 63 63 64 64 64 63 63 62 61 61 60 59 58
67 68 68 67 66 64 64 64 64 64 64 64 63 63 63 63 63 64 65 66 65 64 63 63 63 63 64 64 64 64 64 64 64 63 64 63 63 63 63 64 63 63 64 64 65 65 65 65 65 66 66 64 64 64 63 64 63 61 60 60 59 59
67 67 67 66 65 64 64 64 64 64 64 64 63 63 63 64 65 66 66 66 65 64 63 63 64 63 64 64 63 63 64 62 63 63 63 62 63 62 62 63 63 63 63 64 65 65 65 66 66 65 65 64 64 63 62 62 62 62 62 61 60 60
66 66 66 65 64 64 64 64 63 63 64 64 64 63 63 65 66 67 66 65 64 63 63 62 63 63 64 64 63 62 62 62 61 62 62 62 62 62 62 62 61 62 62 65 64 64 65 66 65 65 64 64 63 61 62 62 62 62 62 61 61 61
66 66 65 64 64 64 63 63 63 63 63 63 64 64 65 65 66 66 66 64 63 63 63 63 64 64 64 63 64 63 62 62 62 62 61 61 62 64 64 63 62 61 61 63 63 64 65 65 65 64 63 62 61 61 61 62 62 62 62 61 61 61

ECMWFFLT2_sfc_temp_138.txt.gz
Temp
73 74 74 74 73 73 75 76 75 76 76 75 75 75 75 76 75 75 75 74 74 70 68 68 70 68 74 70 74 74 75 75 74 75 74 74 74 74 74 74 74 74 74 74 73 73 73 73 73 73 73 73 74 67 67 68 69 70 70 69 70 68
73 74 74 74 74 74 74 75 73 74 74 74 75 75 74 73 75 72 75 72 69 71 68 67 68 73 68 70 71 74 74 75 74 74 74 74 74 74 74 74 74 74 74 74 73 67 68 70 72 72 73 74 70 66 66 68 69 70 70 69 69 70
73 73 73 73 74 73 73 73 73 73 74 74 75 74 72 73 71 70 69 69 70 70 68 68 68 71 69 73 71 74 74 74 74 74 73 73 74 74 74 74 74 74 73 73 67 65 66 66 66 71 71 69 65 66 66 69 68 69 69 69 69 73
72 73 73 73 73 73 73 73 73 73 72 72 72 72 71 71 71 70 69 69 68 69 69 68 74 75 74 69 69 73 73 74 74 74 73 72 72 73 74 74 74 73 71 68 64 65 66 67 68 68 67 66 66 66 66 67 67 69 68 72 70 74
72 72 72 72 73 72 73 73 72 73 73 71 71 71 70 70 70 70 70 69 69 70 69 69 69 70 67 67 64 65 66 66 66 65 72 64 64 66 67 65 65 67 65 64 65 66 66 67 68 69 68 68 68 68 68 68 67 68 68 70 70 74
71 70 71 71 72 73 73 72 72 72 72 71 71 70 70 70 70 70 69 70 70 70 69 69 67 68 67 67 66 65 65 64 64 64 66 63 63 63 64 64 64 65 65 64 65 66 66 68 68 68 68 69 69 69 69 67 68 69 69 68 70 74
70 70 70 70 71 72 71 72 72 72 72 71 71 70 69 69 70 70 70 70 70 69 68 68 68 67 67 67 67 66 66 66 66 66 67 66 65 65 65 64 64 65 65 66 67 67 67 68 68 70 70 70 70 70 69 69 68 68 68 68 70 74
71 70 69 70 70 70 69 70 71 72 72 71 70 70 69 70 70 70 70 70 72 69 69 68 68 67 67 67 67 67 66 66 67 66 67 67 66 65 66 65 66 66 67 68 70 70 69 70 70 70 71 71 70 70 70 70 68 68 68 67 69 73
71 70 70 70 70 69 69 70 70 70 70 72 70 70 70 70 70 70 71 71 72 69 68 69 68 68 67 67 67 67 66 66 67 67 68 67 67 66 66 66 66 67 67 68 67 69 70 71 68 68 70 71 70 70 69 70 67 67 67 67 68 71
71 71 71 70 70 69 68 69 70 70 70 72 70 70 70 70 70 71 70 71 71 69 68 68 68 68 68 67 67 67 68 67 67 67 67 67 66 67 67 66 67 68 68 68 69 70 70 69 70 69 68 69 69 71 70 69 69 67 67 67 67 70
72 72 71 70 70 69 69 69 70 70 71 71 71 70 70 70 70 71 71 71 70 70 70 69 68 67 67 67 68 68 68 68 67 68 69 68 68 68 67 67 67 67 66 67 68 68 68 69 70 71 70 71 69 67 68 69 69 69 68 67 67 67
72 72 71 70 70 68 69 69 70 70 71 71 71 70 70 70 71 70 71 70 69 69 69 67 69 68 68 68 68 67 67 67 67 67 68 68 68 68 68 68 68 69 68 69 68 69 69 68 68 70 70 71 68 69 67 67 67 68 67 67 67 67
72 71 70 70 70 69 70 70 70 71 71 71 71 70 70 70 70 70 70 69 69 69 69 69 68 69 69 67 67 67 66 67 67 67 67 67 68 67 69 68 69 68 69 69 69 69 70 68 67 69 69 71 68 67 67 67 68 68 67 67 67 67
72 71 71 70 70 69 71 70 71 71 71 70 70 70 70 70 70 69 70 69 69 69 69 69 69 68 68 68 67 66 68 68 67 67 67 67 68 66 67 67 67 68 69 67 66 67 66 68 67 67 69 69 69 69 68 68 67 68 67 67 67 67
72 71 72 70 71 71 71 70 69 70 70 69 70 69 68 69 69 70 70 68 69 70 70 69 69 69 67 67 67 67 67 67 67 67 69 66 68 65 66 66 66 67 66 66 65 67 66 66 66 67 68 68 68 69 68 68 67 66 67 68 68 67
72 71 71 71 71 71 70 69 69 71 69 68 68 69 68 69 70 68 70 70 69 70 69 69 69 68 67 67 67 67 67 67 67 67 67 67 68 68 64 66 66 66 66 66 65 66 65 65 66 67 67 67 67 67 68 67 68 68 69 68 67 67
71 71 70 71 71 70 69 69 69 69 69 68 69 68 68 69 69 69 68 69 70 71 69 69 69 69 67 67 66 67 67 67 67 66 66 65 66 65 66 67 66 65 65 65 64 64 65 65 66 67 67 67 67 68 67 68 68 67 69 67 67 67
71 71 70 71 70 70 70 69 68 69 69 68 67 67 67 67 66 65 66 67 68 70 70 69 69 69 67 66 66 67 67 66 67 66 66 66 66 65 65 65 65 64 64 65 63 64 65 66 67 67 67 67 67 67 67 67 67 68 67 67 67 67
71 70 70 69 69 68 68 67 67 67 66 65 65 65 65 65 66 66 66 66 67 68 70 69 69 69 68 67 66 67 66 67 67 66 66 66 66 65 65 64 64 65 65 64 65 65 66 66 66 66 66 67 66 67 67 66 67 66 66 67 68 69
70 69 68 68 68 67 67 66 65 65 65 64 65 66 65 65 65 65 66 67 66 67 69 70 69 68 69 67 67 66 67 66 67 66 66 66 64 64 65 64 64 64 64 64 64 65 65 64 65 64 64 65 65 65 66 67 66 66 66 66 66 67
67 68 68 67 66 66 65 64 64 65 64 63 64 64 65 64 65 65 66 66 67 67 69 70 70 69 67 69 65 66 66 67 66 66 64 65 65 66 65 65 65 64 65 63 63 63 64 64 62 62 61 63 64 65 65 65 65 64 64 65 65 66
66 67 67 67 66 66 66 65 64 64 63 63 63 64 63 64 65 66 66 66 67 68 69 70 70 68 68 66 66 66 66 67 66 65 66 66 67 67 66 65 64 64 63 64 63 64 65 63 58 59 59 60 60 62 63 62 62 63 63 65 66 64
66 66 66 66 66 65 63 64 63 62 64 63 63 63 64 65 66 64 65 66 67 68 69 69 69 69 69 67 66 66 67 66 66 67 65 65 64 64 64 64 64 64 63 62 62 64 64 62 62 59 59 56 55 59 59 58 58 64 66 65 63 63
66 66 66 66 67 65 65 64 64 64 64 63 63 65 65 65 64 64 65 66 67 68 69 69 69 70 69 67 66 66 66 67 68 66 65 64 64 64 63 64 64 63 63 61 60 61 63 62 60 61 56 56 58 58 57 53 58 62 64 62 63 66
66 66 66 66 65 65 65 64 64 64 64 64 64 63 63 62 62 64 65 66 67 69 70 70 69 70 71 68 67 66 65 65 66 65 65 64 63 65 65 64 63 62 62 63 60 59 61 62 61 61 61 57 57 56 55 58 59 61 61 62 62 63
65 65 65 65 65 65 65 64 63 62 61 60 61 61 61 62 62 63 64 66 68 69 70 69 69 70 71 69 68 67 66 66 65 65 65 64 63 63 63 63 64 64 62 62 63 59 58 60 61 62 61 62 62 58 58 59 59 57 61 64 64 62
66 65 65 65 65 65 64 64 64 64 64 63 62 61 61 62 63 64 65 66 68 69 70 69 69 69 69 69 67 66 66 65 65 64 65 63 64 63 63 64 63 62 62 61 61 59 58 59 59 58 61 60 61 62 61 59 58 59 57 60 60 60
66 66 65 65 65 66 64 64 63 64 64 63 63 62 63 64 65 66 66 66 67 68 69 70 69 68 67 67 67 66 65 65 64 64 65 63 63 63 63 63 63 62 62 62 61 61 59 58 58 59 60 60 59 60 61 61 61 59 58 57 59 61
65 66 65 65 65 65 65 64 64 64 63 63 63 63 64 65 63 64 64 64 66 67 67 67 68 67 67 66 66 65 64 64 64 64 64 64 62 62 62 62 62 62 61 61 61 62 60 60 58 60 59 57 59 58 58 59 60 59 58 57 58 59
65 65 65 65 65 65 65 65 64 63 63 62 63 62 63 63 62 63 63 63 64 66 66 66 66 66 66 65 65 65 64 63 62 63 64 61 62 62 62 61 60 61 61 60 60 60 60 60 60 60 59 60 58 58 57 56 57 58 59 59 57 58
65 65 65 65 65 65 65 65 64 64 64 62 62 62 62 61 62 61 62 62 62 65 66 65 65 66 66 65 65 65 63 63 63 64 63 62 61 61 61 61 61 61 61 60 60 60 60 59 59 59 59 59 59 60 59 58 60 60 59 58 58 58
65 65 65 65 65 65 65 65 65 64 63 63 63 63 62 61 61 61 62 62 63 64 64 64 64 64 64 64 63 62 63 62 62 61 61 61 61 61 61 61 61 61 61 61 61 62 60 61 61 61 60 60 60 62 62 61 61 61 60 59 59 58
65 65 65 66 65 65 64 64 64 63 63 63 63 63 63 62 62 62 62 62 63 63 63 63 62 62 61 62 62 61 61 61 60 61 60 60 60 60 60 61 60 60 60 60 60 61 62 63 63 62 62 63 62 62 60 61 61 61 61 61 60 58
65 66 66 66 66 65 64 64 63 63 63 63 62 63 62 62 62 62 62 63 63 62 62 62 61 61 61 62 61 61 61 60 60 60 60 60 59 60 60 60 59 59 59 60 62 63 63 64 64 63 62 62 62 60 59 60 61 61 61 60 59 59
65 66 66 66 65 64 63 63 63 62 63 62 62 62 62 63 63 62 63 63 62 62 62 61 61 61 61 61 61 60 60 59 60 59 60 59 61 59 59 59 59 59 60 62 63 63 61 62 61 60 59 59 60 59 57 58 59 60 61 60 60 60
66 66 66 65 65 64 63 63 62 62 62 62 63 62 62 63 63 63 63 63 62 62 62 61 61 61 61 61 60 60 60 59 59 59 59 58 58 60 58 59 58 59 60 62 63 62 61 60 60 59 58 58 57 56 57 57 58 58 59 60 60 60
66 66 65 65 64 63 62 62 62 62 62 62 62 62 62 63 63 63 63 63 63 62 61 61 61 61 60 60 60 60 59 59 59 59 58 58 59 60 61 61 60 59 60 62 63 61 60 59 59 58 57 56 55 55 55 56 55 55 56 57 58 59

ECMWFFLT2_sfc_temp_141.txt.gz
Temp
72 72 73 73 73 73 74 75 75 75 75 75 75 75 75 75 75 74 74 74 73 69 67 68 70 68 76 72 74 74 74 74 74 74 74 74 74 74 74 74 73 73 74 73 73 72 70 71 72 72 72 73 73 65 65 66 68 68 67 69 69 66
72 73 73 73 73 73 74 74 73 73 74 74 75 75 73 72 75 70 74 71 67 70 66 65 68 73 68 71 72 74 74 74 74 74 73 74 74 73 74 74 74 74 74 73 72 66 66 67 70 72 73 73 65 63 63 66 67 68 68 67 68 68
72 73 73 73 73 73 73 72 72 72 73 74 74 73 71 72 68 69 67 67 69 67 66 66 66 70 68 72 70 74 74 74 74 74 73 73 73 73 73 73 74 73 73 72 66 62 63 63 64 70 70 65 62 63 63 64 66 67 68 67 67 71
72 73 73 73 73 73 72 72 72 72 72 71 71 71 70 69 69 67 67 67 66 67 67 65 72 74 73 69 69 73 74 74 74 73 73 70 70 70 72 72 72 72 69 65 62 63 64 63 65 66 66 65 65 63 64 64 65 67 67 70 68 72
73 73 72 72 72 72 72 73 72 73 72 70 70 70 69 68 68 67 67 67 66 67 66 67 67 69 66 66 62 63 66 66 66 64 70 64 64 65 65 63 63 64 62 62 63 64 64 65 66 67 67 67 68 67 65 66 65 65 66 68 69 72
72 73 73 72 72 73 73 72 72 72 72 70 70 70 70 69 67 67 66 67 67 66 65 65 65 66 65 64 63 63 62 63 63 63 66 64 64 63 61 61 62 64 63 62 62 63 63 65 66 65 66 67 68 68 68 65 66 66 66 66 69 73
72 72 72 73 73 73 72 72 72 72 72 71 71 70 70 69 68 67 67 67 67 66 65 65 65 65 65 65 65 65 64 63 63 63 65 65 64 63 62 63 62 63 62 63 64 64 64 65 64 67 67 68 68 68 68 66 65 66 66 66 68 73
71 71 71 72 72 72 72 72 72 72 72 71 70 70 70 70 69 67 68 68 70 67 66 65 65 64 64 64 65 65 65 64 65 64 64 64 63 63 63 63 63 63 64 65 66 66 65 67 66 66 68 68 68 67 67 66 66 66 66 66 67 71
71 71 71 72 72 71 71 71 72 72 71 72 70 70 70 70 69 68 68 69 70 67 66 67 66 66 64 65 64 64 64 65 64 66 64 65 64 64 64 64 64 65 64 65 65 65 66 67 65 64 66 68 68 68 67 67 66 66 66 66 66 69
71 71 71 72 71 70 71 70 71 71 71 72 69 69 69 69 69 68 68 69 69 68 67 67 67 65 66 65 64 64 65 64 65 65 65 66 65 65 65 64 65 66 65 65 66 67 67 67 68 67 66 67 66 67 66 66 66 66 66 65 66 67
70 71 71 71 70 70 70 70 70 71 71 70 69 69 68 69 68 68 69 69 69 69 68 67 67 66 65 65 65 65 65 65 65 65 66 66 66 66 65 65 66 65 65 64 66 66 67 67 67 68 67 68 68 67 66 67 65 65 65 65 65 66
69 69 69 70 70 69 69 70 70 70 69 69 69 68 68 68 69 69 69 69 69 68 69 67 67 66 66 65 65 65 65 65 66 66 66 66 66 66 66 66 66 66 65 65 65 65 65 65 65 67 66 67 66 67 65 66 65 65 65 65 65 65
69 68 68 68 69 68 68 69 69 69 69 70 69 68 68 68 69 69 69 69 68 68 67 67 67 67 68 66 66 65 65 66 66 66 66 66 66 65 65 66 66 66 65 65 66 66 67 65 65 66 66 68 66 66 66 65 66 65 65 66 65 65
69 68 69 69 68 67 67 68 69 68 69 69 69 68 68 68 69 69 69 68 68 68 67 66 67 67 67 66 66 66 66 66 66 66 66 65 65 64 64 65 65 65 67 64 64 63 64 65 65 64 66 66 66 66 65 65 65 66 65 65 66 65
70 69 70 69 69 68 68 68 68 68 68 68 68 68 68 68 68 69 68 67 68 68 68 67 68 67 67 67 66 65 65 66 66 64 65 64 64 63 64 65 64 65 63 63 62 64 64 62 63 65 65 66 66 66 66 66 66 65 65 65 65 65
69 69 69 69 69 69 68 68 68 70 68 68 68 68 68 68 69 68 67 67 68 69 68 68 68 67 67 67 66 65 65 65 65 64 64 65 65 66 63 64 63 64 64 64 63 64 62 63 64 65 65 65 65 65 66 65 66 66 67 65 66 66
69 68 69 69 69 69 68 68 68 69 68 68 68 68 68 68 68 68 67 67 68 70 68 69 68 67 67 66 65 65 64 65 65 64 63 63 65 63 63 64 63 64 64 63 63 62 64 63 64 65 65 65 65 66 65 65 66 65 66 66 66 65
69 69 69 69 69 69 68 68 68 68 68 68 67 67 67 67 67 67 67 67 68 69 68 68 68 68 66 66 65 65 65 64 64 64 64 63 63 62 62 62 64 62 62 62 62 62 63 64 65 65 65 65 65 64 64 65 65 67 65 65 66 66
69 68 68 69 69 68 68 67 66 67 67 66 66 65 66 66 66 66 66 67 68 69 68 67 67 67 67 67 64 64 63 64 64 64 63 63 62 63 63 62 63 63 63 62 63 63 63 63 64 64 64 64 64 64 64 64 64 63 63 64 65 67
68 68 68 68 68 67 67 65 64 64 65 65 65 65 65 65 65 65 66 66 67 66 67 67 66 66 67 66 65 65 64 64 64 64 64 65 63 63 65 65 64 63 62 62 62 62 61 61 62 61 62 63 63 63 63 63 62 62 63 63 64 64
67 67 68 67 66 66 65 64 64 64 64 64 65 64 64 63 64 64 65 65 65 65 66 67 68 67 65 68 64 64 64 63 64 65 63 64 65 64 63 63 63 62 63 61 61 61 62 60 58 60 59 60 61 61 63 61 60 60 63 63 62 62
65 66 67 67 67 66 66 66 65 65 63 64 64 64 63 63 64 65 65 64 65 65 66 66 68 67 65 64 63 63 64 65 64 65 66 65 65 67 65 64 63 62 61 62 61 61 63 61 57 57 58 58 55 58 59 58 60 62 65 63 62 62
65 66 66 67 67 66 65 66 66 63 64 62 62 63 63 64 65 64 63 64 65 65 66 66 67 67 66 64 64 64 64 63 65 67 66 64 65 65 63 62 62 63 61 60 60 61 62 61 60 57 58 57 53 56 57 55 54 62 64 63 61 63
66 67 67 67 68 66 66 65 65 65 64 64 63 65 64 64 63 64 63 64 64 65 66 66 66 67 66 64 64 64 64 65 66 67 65 64 64 65 62 62 60 61 61 60 57 59 60 59 59 58 55 55 56 57 54 50 55 61 60 59 62 64
67 67 68 68 67 66 65 64 64 64 64 64 64 63 63 62 62 63 64 63 64 65 66 66 66 67 66 64 64 64 65 65 65 65 66 65 65 65 63 61 60 60 60 60 57 55 57 59 58 60 60 56 55 53 53 55 58 60 58 61 60 61
66 67 68 67 66 66 66 64 63 63 62 61 61 61 62 62 62 63 64 64 65 66 66 66 66 66 67 67 65 65 65 65 65 64 65 65 65 64 62 61 61 60 59 59 59 56 56 58 59 59 59 60 61 57 57 59 59 56 62 63 61 60
67 67 67 66 67 67 65 65 65 65 65 64 62 62 62 62 63 63 64 64 65 65 66 67 66 67 67 68 66 65 65 65 65 65 66 65 63 63 62 62 61 59 60 59 58 57 57 56 57 57 59 60 60 60 59 58 57 59 56 60 60 60
68 68 67 66 67 67 66 65 65 65 64 63 64 63 62 62 63 64 64 63 64 64 66 67 67 67 68 68 67 66 66 66 66 65 65 64 62 61 60 60 61 59 59 58 58 58 58 56 57 57 57 59 57 58 57 59 60 58 57 56 59 61
67 67 66 66 66 67 67 66 65 64 63 63 64 62 63 64 63 64 63 62 65 65 65 65 65 66 66 67 67 66 65 64 63 62 63 61 60 59 59 58 59 59 58 58 58 59 57 57 56 56 56 55 55 55 56 58 58 59 58 57 57 58
65 66 66 66 66 65 65 65 64 63 63 62 62 62 63 62 62 62 62 62 63 64 64 64 64 64 64 64 63 63 62 62 62 62 62 59 59 59 58 58 57 58 57 58 57 57 58 57 57 57 58 59 58 58 59 58 58 58 59 59 56 57
64 64 65 65 65 65 64 65 64 64 63 62 62 62 62 61 61 61 62 62 63 63 63 63 62 63 63 62 62 63 62 61 62 62 61 59 59 58 57 58 58 58 59 58 57 57 57 58 60 60 60 58 59 60 59 59 59 59 59 58 58 58
64 64 64 65 65 64 64 64 64 64 63 63 63 63 62 61 61 62 62 62 63 63 63 63 62 61 62 61 62 61 61 60 60 59 59 58 58 57 57 58 58 58 58 57 58 58 58 61 60 60 61 62 61 61 60 58 59 60 59 59 59 58
63 64 64 65 64 64 64 63 63 63 63 63 63 63 63 62 61 62 62 62 63 62 61 61 60 60 59 59 60 60 60 59 59 59 58 58 57 57 57 57 57 57 57 58 58 59 59 59 59 58 59 61 60 59 57 58 59 59 60 60 59 57
64 65 64 64 64 63 63 63 63 63 63 63 63 63 62 62 62 62 62 63 63 61 59 60 60 59 59 59 59 59 59 59 58 58 58 57 57 57 57 58 57 58 58 59 59 58 58 58 58 57 58 58 58 57 56 57 57 58 57 57 57 57
64 65 65 64 64 63 63 63 62 62 62 62 62 61 61 62 62 62 62 63 62 61 60 61 61 61 59 58 58 58 58 58 57 57 56 57 59 56 56 58 58 58 60 59 58 58 57 57 56 55 55 55 55 55 54 55 55 55 56 56 56 56
65 65 65 65 64 63 63 62 62 62 61 61 62 61 61 61 61 62 62 62 61 60 61 61 61 60 58 59 58 58 58 57 57 57 56 57 57 58 57 58 57 58 58 59 57 57 57 57 56 55 54 54 52 52 53 53 54 54 53 54 55 56
65 65 65 65 65 63 62 62 61 61 61 61 61 61 61 61 61 61 61 61 62 61 61 61 60 59 58 57 58 58 57 56 56 56 56 57 57 58 61 60 58 58 58 59 58 57 57 56 55 55 53 52 50 50 51 52 52 52 52 53 54 55

ECMWFFLT2_sfc_temp_144.txt.gz
Temp
72 72 72 73 73 73 75 75 75 75 75 75 75 75 75 75 74 74 74 74 73 69 69 71 72 71 76 73 74 74 74 74 74 73 73 74 74 74 74 73 73 73 73 73 72 70 68 68 70 72 72 73 72 67 66 68 69 70 70 71 72 69
72 72 73 73 73 73 74 75 73 73 74 74 75 75 74 72 74 71 74 70 68 70 66 66 69 74 71 73 73 74 74 74 74 73 73 73 73 73 73 73 73 73 73 72 69 65 64 66 68 71 72 71 66 64 66 68 69 70 70 70 71 69
72 72 73 73 73 73 72 72 72 72 73 74 74 73 71 72 69 68 67 67 68 66 66 67 68 70 70 73 72 74 74 74 74 74 73 73 73 72 73 73 72 72 70 70 64 62 62 63 65 70 70 68 65 66 66 67 68 69 70 69 71 70
72 72 72 72 73 72 72 72 72 72 71 71 71 70 69 69 68 67 67 67 66 67 67 66 73 74 74 70 70 74 74 74 74 73 73 69 68 68 70 68 68 70 65 64 63 64 65 65 66 66 66 67 67 66 68 67 68 69 69 70 71 71
72 73 73 72 72 72 72 72 72 72 72 71 70 69 69 68 67 67 67 67 66 67 66 66 66 68 66 65 64 65 67 66 65 64 69 65 64 65 65 63 63 64 62 64 64 64 65 66 67 67 68 68 69 68 67 68 68 68 69 69 71 71
72 72 72 72 72 72 72 72 72 72 71 70 70 70 69 68 67 67 67 67 68 67 66 67 67 66 65 64 64 65 64 64 64 65 67 66 65 65 64 63 62 64 64 63 64 65 66 68 67 67 68 69 69 69 69 68 68 68 69 68 70 72
72 72 72 73 73 73 72 72 72 72 71 70 71 70 70 69 68 67 68 68 67 66 66 67 68 67 65 65 65 65 65 64 65 64 66 65 65 64 64 64 64 65 63 65 66 67 66 67 66 69 69 70 70 70 69 69 68 68 68 68 69 71
71 71 72 73 72 72 72 72 72 72 72 71 70 70 70 69 69 68 68 68 68 66 66 66 67 67 65 65 65 66 65 65 65 65 65 65 65 64 63 63 64 64 65 66 68 68 67 68 68 68 69 69 69 69 68 69 68 68 68 68 69 71
70 71 72 73 72 72 72 72 72 72 71 72 70 70 70 69 69 68 67 68 68 66 66 66 66 66 65 65 65 65 66 66 65 66 66 66 66 65 65 65 65 66 65 65 66 66 67 69 67 67 68 70 70 70 69 69 68 68 68 68 68 70
70 71 72 72 72 71 71 71 72 71 71 71 70 70 70 69 69 68 67 67 69 68 67 66 66 65 65 65 65 65 66 65 66 65 66 66 66 66 66 65 66 66 67 66 67 68 69 68 69 69 68 69 69 69 69 69 68 68 69 68 68 69
70 72 72 72 71 71 71 71 71 71 72 70 70 70 70 70 69 68 67 67 69 69 67 66 66 65 65 65 64 65 65 65 65 65 66 66 66 66 66 66 67 67 67 67 68 68 68 69 68 69 69 70 69 69 69 68 68 68 68 68 68 68
71 71 71 71 71 70 71 71 71 71 71 70 70 69 69 70 70 69 68 68 68 68 68 67 67 66 66 65 65 65 65 65 66 66 66 67 66 66 66 67 67 67 67 67 67 68 67 67 68 68 68 69 69 68 67 68 68 68 68 68 68 68
71 71 71 70 71 70 71 71 70 71 71 70 70 69 69 69 70 69 68 68 68 68 68 67 67 67 68 66 65 65 65 66 66 66 66 67 66 66 66 67 67 68 67 67 67 67 68 67 66 67 67 69 68 68 68 68 68 68 68 68 68 68
70 70 70 70 71 70 70 70 70 70 70 70 70 68 68 69 69 69 68 68 68 68 68 67 67 66 67 66 66 66 66 66 66 66 65 65 66 66 66 66 67 66 68 66 65 65 65 66 67 66 67 67 67 68 67 68 68 68 68 68 68 68
70 69 70 70 70 70 70 70 70 69 70 70 69 68 68 68 68 68 68 67 68 68 68 67 67 67 67 66 66 66 65 67 66 66 65 65 66 64 65 65 65 66 64 64 64 65 65 64 65 67 67 67 67 67 67 68 67 68 68 68 67 68
69 69 69 69 70 70 69 69 69 70 69 69 68 68 67 68 68 68 68 67 67 68 68 67 67 67 67 66 67 66 67 65 66 66 65 65 65 65 64 64 64 65 66 66 65 65 64 65 65 66 66 66 67 67 67 67 67 67 68 67 68 68
67 68 68 69 69 69 69 68 68 68 68 68 67 67 67 67 68 67 67 67 67 69 68 67 67 68 67 67 66 67 66 66 66 66 64 63 64 63 65 67 65 65 65 65 64 64 65 65 65 66 66 66 66 67 66 67 66 67 67 67 67 68
68 68 68 68 68 68 68 67 67 67 68 67 67 68 67 67 67 67 66 67 67 69 68 68 68 67 67 67 66 66 65 65 65 65 64 64 64 63 63 66 67 63 63 64 64 64 65 65 65 65 66 66 66 66 66 66 66 67 66 67 67 67
68 67 66 67 68 67 67 66 66 66 66 66 67 66 66 66 67 66 66 67 68 68 69 67 68 67 66 67 65 65 64 65 65 65 65 64 63 64 64 63 66 65 63 63 64 64 65 63 64 64 64 65 65 65 65 65 66 65 66 66 66 68
66 67 67 67 66 66 65 65 64 64 64 65 65 66 65 66 66 66 67 67 67 67 68 67 67 66 67 66 65 64 64 64 65 65 65 65 65 64 65 66 64 65 64 64 64 63 63 64 63 62 63 64 64 64 64 64 64 64 66 66 65 66
66 66 67 66 65 65 64 64 64 64 64 64 65 65 65 65 65 66 67 66 67 66 67 68 67 67 66 68 64 64 64 64 65 65 64 65 65 63 64 65 64 64 64 63 65 63 63 62 61 63 60 60 61 62 63 62 61 63 66 65 64 65
65 65 65 66 66 65 66 66 65 65 63 64 64 64 64 64 65 66 66 66 66 66 67 67 68 67 66 65 65 65 65 65 65 65 65 64 64 66 66 66 66 65 62 62 63 62 63 63 60 59 59 59 58 60 61 60 61 64 66 65 64 65
65 65 65 66 66 66 65 66 65 63 64 63 64 64 65 65 66 65 65 65 66 66 67 66 67 67 66 65 65 65 65 65 65 67 66 65 66 66 66 65 64 65 63 62 62 62 62 62 62 59 58 58 55 57 60 59 58 65 66 64 64 66
66 66 65 66 67 67 66 65 66 65 65 64 63 64 64 64 64 64 64 64 65 66 66 66 67 67 67 65 65 65 64 65 66 66 67 66 67 66 65 64 63 63 63 64 58 58 61 60 62 61 57 57 57 56 55 55 58 63 62 62 65 66
65 65 66 67 67 66 66 64 64 64 64 64 64 63 63 63 63 64 64 64 65 66 66 66 66 67 67 65 65 65 65 65 66 66 67 66 66 66 66 65 64 63 63 61 60 57 60 60 60 62 62 59 56 54 54 59 60 60 60 64 63 64
65 65 66 67 67 67 66 64 63 63 62 62 62 62 62 63 62 64 65 64 65 66 66 66 66 66 67 67 66 65 65 66 65 66 66 66 66 65 65 64 64 63 61 60 61 58 57 59 59 60 61 61 60 58 58 60 59 56 64 65 64 63
66 66 67 67 67 68 66 65 65 65 65 64 63 62 62 63 64 64 65 64 65 65 66 66 66 66 67 68 66 66 65 65 65 65 66 66 66 65 64 64 62 61 61 60 57 55 56 58 59 59 60 60 61 62 62 59 57 59 57 61 63 63
66 67 67 67 67 68 67 66 66 66 65 64 64 63 63 63 63 65 64 64 64 64 66 66 66 67 68 68 67 67 66 66 66 66 66 65 65 64 63 62 61 60 60 60 58 58 58 57 58 59 59 60 60 61 60 61 60 58 57 56 60 65
66 67 66 67 67 68 68 67 66 66 64 64 65 63 63 64 63 64 63 63 64 64 65 65 66 66 67 68 68 67 66 66 65 64 64 62 61 61 61 60 60 60 59 59 61 60 59 59 58 60 60 60 60 60 60 61 60 59 58 56 57 59
65 66 66 66 66 67 67 67 65 65 64 62 63 62 63 62 62 63 63 63 63 63 63 63 64 65 66 67 66 66 65 64 63 63 62 60 60 60 60 60 59 59 59 59 58 58 59 59 59 60 60 60 60 60 61 61 60 60 60 60 56 58
65 65 65 66 66 66 66 66 65 65 64 63 62 62 61 61 62 62 63 62 62 62 63 62 63 63 64 65 65 64 63 63 63 63 62 60 60 60 59 59 59 59 59 59 59 59 61 61 62 62 62 61 60 59 58 58 58 58 58 58 57 58
63 64 64 65 65 64 65 65 65 65 64 63 63 62 62 61 62 63 63 62 62 62 62 62 62 63 63 63 63 62 62 61 61 60 60 59 59 59 59 59 59 60 59 59 60 60 58 58 59 59 60 60 59 59 58 56 56 57 57 57 57 57
62 63 64 64 64 64 64 64 64 64 63 63 63 63 63 62 62 62 62 61 61 61 61 61 62 62 62 62 62 61 61 61 60 60 59 59 58 58 59 59 59 59 59 58 58 57 56 56 56 56 58 59 58 57 55 56 56 56 57 57 57 55
63 64 63 63 63 63 63 63 63 63 63 63 63 63 63 62 63 63 63 62 62 62 61 62 62 62 62 62 62 62 61 60 59 59 60 59 59 59 59 59 59 58 57 57 57 57 57 56 56 56 57 56 56 55 54 55 54 55 54 54 54 54
63 63 63 63 63 63 62 63 63 63 63 63 63 62 62 63 63 62 63 62 62 61 62 62 62 61 62 61 61 60 60 59 58 58 58 58 59 58 59 60 59 58 58 58 58 57 57 56 55 54 54 54 54 53 53 53 53 53 54 53 53 53
63 63 63 63 63 63 63 63 63 62 62 62 63 62 61 62 62 63 62 62 61 61 61 61 61 61 61 61 60 60 59 58 58 58 58 58 58 59 59 58 57 57 57 59 58 57 56 56 55 54 53 53 52 52 52 52 53 53 54 54 54 54
63 63 63 63 63 64 63 62 62 62 62 62 62 62 61 61 62 62 62 61 61 60 61 61 60 61 60 60 60 60 58 57 57 57 58 58 59 59 60 59 58 57 57 58 58 56 56 55 55 55 53 52 51 52 52 52 53 54 54 55 55 55

ECMWFFLT2_sfc_temp_150.txt.gz
Temp
84 84 84 84 83 82 80 77 77 76 76 75 76 76 76 76 76 76 77 77 76 81 82 81 79 83 77 80 76 75 75 74 74 74 74 74 74 74 75 74 74 73 73 73 73 71 71 73 72 73 74 75 73 82 89 89 90 91 91 93 90 93
84 84 84 83 84 83 80 79 82 79 79 78 77 77 78 80 80 81 78 79 82 83 84 83 82 81 81 80 78 75 75 74 74 74 74 74 74 74 74 74 73 73 72 73 71 82 81 74 71 73 75 73 81 89 89 89 88 91 91 91 91 84
84 83 84 84 84 84 82 83 83 81 81 79 80 81 81 81 83 83 83 84 82 83 84 84 83 82 83 78 80 75 75 75 74 74 73 73 73 72 72 73 72 73 74 72 80 88 89 89 85 72 73 81 88 89 89 88 89 89 91 91 92 76
83 83 83 84 84 84 84 84 83 82 82 81 82 82 82 83 84 83 82 82 82 83 83 83 81 79 80 81 79 74 74 74 74 73 72 75 71 72 71 71 73 73 74 83 90 90 92 91 91 87 87 88 90 90 88 89 91 91 90 92 94 74
84 84 84 84 83 84 84 85 84 82 82 83 82 83 82 83 83 82 83 82 83 82 83 84 82 82 83 83 83 81 80 81 82 82 74 83 84 86 81 88 85 82 89 90 91 89 89 90 89 90 89 89 89 89 89 89 90 91 91 90 89 74
84 84 83 84 84 85 83 84 82 82 82 82 82 82 82 83 82 81 82 82 81 81 81 83 82 82 83 83 83 84 84 85 85 85 83 85 87 86 87 89 89 89 89 89 88 88 89 88 89 90 90 89 89 89 90 91 92 90 89 89 88 75
84 84 83 85 86 85 85 84 83 83 82 82 83 82 83 83 82 81 81 81 80 81 81 82 81 82 82 82 83 84 85 85 84 85 85 86 85 86 87 89 88 88 89 89 90 90 89 90 89 92 91 92 91 91 90 91 92 91 90 90 87 74
83 83 83 85 85 85 85 83 82 82 82 81 82 82 83 83 81 80 80 80 80 82 82 81 81 81 81 82 82 83 84 84 85 86 86 86 86 87 87 88 87 88 89 90 91 90 91 91 90 89 90 90 90 89 89 90 89 89 89 88 90 79
83 83 84 85 84 86 85 83 82 82 82 81 82 82 82 83 81 82 80 80 80 80 82 81 80 81 82 81 82 81 83 84 84 86 85 86 86 86 86 87 87 88 87 88 89 88 90 90 89 89 89 90 90 89 89 88 87 88 88 89 88 85
82 83 83 83 83 84 83 81 82 81 81 81 82 81 81 82 82 82 81 81 80 80 81 82 81 82 82 81 81 81 82 83 84 85 85 84 87 86 86 87 86 87 89 88 88 88 87 89 90 89 90 89 88 89 88 88 87 88 89 88 87 87
83 82 83 83 83 82 82 82 82 82 81 81 82 80 81 82 83 83 82 80 81 81 81 82 82 82 82 81 82 81 83 84 84 85 85 85 86 86 86 86 85 86 87 87 87 88 88 86 88 90 90 90 89 89 89 87 88 87 87 87 88 87
82 82 81 83 83 82 81 82 81 82 81 81 81 80 81 83 82 84 82 81 81 81 82 82 81 82 82 82 82 84 84 83 84 85 85 86 86 85 86 87 85 85 85 85 86 86 86 86 86 88 89 90 90 87 87 87 87 87 86 86 86 87
83 81 81 81 82 82 82 82 81 81 81 81 81 81 82 83 83 83 81 81 81 81 82 82 81 82 83 84 84 83 83 83 84 84 84 83 83 84 85 85 84 85 84 85 84 84 87 86 85 86 86 88 86 85 86 87 87 86 86 86 86 87
82 80 80 82 82 83 82 81 82 82 81 80 81 82 83 83 83 83 82 82 82 82 82 83 83 82 83 84 82 83 83 83 85 83 83 83 83 84 84 84 84 85 83 83 84 84 85 85 86 87 87 86 85 85 86 86 86 85 85 85 86 85
80 80 80 81 81 82 82 82 83 82 81 81 81 81 82 83 83 84 83 82 82 82 83 83 83 82 83 83 83 83 83 84 84 84 84 84 83 83 84 83 84 83 84 84 85 85 84 83 84 85 83 84 85 85 84 84 84 85 86 85 85 85
80 79 79 80 80 81 81 81 82 81 81 81 81 81 83 83 84 85 84 83 83 83 83 83 83 83 82 84 84 84 84 84 83 84 84 83 83 83 83 82 82 83 82 85 85 84 84 83 82 83 83 83 83 83 84 84 84 84 85 85 86 85
78 79 79 80 80 80 80 80 80 80 79 79 79 80 83 83 83 84 84 85 83 82 83 83 83 83 83 83 85 84 85 82 83 84 82 82 83 83 82 81 81 82 82 82 84 82 82 82 82 82 82 81 82 82 83 84 84 84 85 84 84 85
79 79 79 79 79 79 80 79 79 78 78 78 79 81 83 83 83 84 84 84 83 82 82 84 83 84 83 83 84 84 82 82 83 83 81 82 82 83 83 81 80 81 82 80 81 81 80 81 81 80 80 81 81 82 82 83 83 83 84 84 84 84
79 79 79 79 79 79 79 78 77 77 76 77 79 81 83 83 84 83 83 83 84 83 83 84 83 83 82 84 84 83 82 81 83 82 81 82 81 82 81 81 80 80 81 81 81 80 79 80 80 80 80 80 81 80 81 83 82 83 83 82 83 83
78 79 79 79 79 79 79 76 74 74 75 76 78 80 81 83 82 82 82 82 83 82 84 83 84 84 83 82 83 83 81 82 82 82 81 81 81 82 80 79 80 79 78 79 81 80 80 79 79 79 79 79 80 80 80 80 80 81 82 82 83 84
77 78 79 79 78 78 76 74 74 74 75 76 77 78 79 81 82 82 83 82 82 82 83 83 83 83 82 82 82 82 81 81 82 82 81 80 81 81 80 80 79 79 78 77 79 79 79 79 77 77 79 78 78 80 79 78 79 81 81 82 84 84
78 78 78 79 79 79 78 77 75 76 76 76 77 76 78 80 80 82 82 82 82 82 82 83 83 83 82 82 81 81 81 81 81 82 81 81 81 80 80 80 79 78 80 77 77 77 78 77 76 74 73 74 78 80 78 78 78 79 80 82 83 82
78 78 78 79 78 77 78 79 77 77 78 78 80 80 81 81 81 81 81 81 82 82 82 83 83 83 82 82 81 82 81 82 81 82 81 80 80 79 80 79 78 77 77 80 79 79 77 77 73 75 75 74 74 73 77 77 80 80 81 80 81 80
78 78 78 78 78 78 77 78 78 78 78 79 78 79 80 81 80 80 79 81 82 82 83 84 85 84 84 82 81 81 82 82 81 81 80 80 80 80 79 79 79 78 77 77 79 78 78 77 75 73 70 70 72 72 73 74 72 78 79 78 79 79
77 77 78 78 78 78 76 75 76 77 77 76 77 77 78 78 79 79 80 80 81 83 83 83 84 84 85 81 81 82 82 82 81 81 81 81 80 79 80 80 79 78 77 75 76 76 78 78 75 76 73 70 71 72 70 71 72 76 76 78 79 79
71 75 78 78 78 77 75 75 74 74 72 73 73 72 74 75 77 77 79 81 82 83 83 83 83 83 83 81 80 82 82 82 81 81 81 81 80 79 79 79 80 79 78 77 74 76 75 78 77 75 75 74 71 68 68 71 72 69 77 81 79 79
73 75 77 78 77 76 75 76 75 76 76 74 73 74 77 79 79 80 81 80 81 81 83 81 82 82 81 80 80 82 82 82 81 81 81 80 79 79 80 79 80 79 78 78 76 74 74 76 77 76 75 74 74 74 73 69 67 70 68 75 78 78
74 75 77 78 77 76 75 76 75 76 76 76 76 75 77 78 80 80 80 79 80 80 81 81 81 81 80 80 82 81 82 81 81 81 82 81 79 79 79 79 77 77 76 77 76 74 73 74 71 73 75 73 73 73 73 73 72 67 67 66 71 78
73 75 76 77 76 76 77 77 75 76 76 78 77 77 78 79 79 80 78 79 79 80 80 80 82 80 80 81 81 81 81 81 81 81 83 80 79 79 77 77 76 76 75 75 75 74 73 73 72 71 72 72 73 73 74 75 74 72 68 66 69 71
73 75 75 75 76 77 77 76 73 74 75 75 76 78 79 79 78 78 76 76 77 78 79 78 79 80 76 81 81 82 81 81 80 80 81 79 78 77 77 77 76 75 75 74 75 74 72 73 73 72 72 71 70 71 72 72 71 70 69 69 66 68
74 75 75 74 75 75 75 76 75 74 74 74 75 76 76 76 77 75 75 75 77 78 78 78 77 77 72 80 80 82 81 81 80 79 79 78 77 77 77 76 76 75 74 73 74 73 72 72 73 72 71 71 71 71 68 67 67 67 66 65 66 67
74 74 74 74 74 74 73 74 75 73 70 69 71 73 73 73 75 75 75 75 78 77 77 76 76 77 78 80 79 79 80 80 79 78 78 78 77 77 76 77 76 75 74 73 73 72 72 70 70 72 71 71 71 71 70 68 68 66 65 65 64 65
73 74 74 75 74 73 72 73 73 72 70 70 70 71 73 75 76 75 76 76 76 76 76 74 73 76 77 77 79 78 78 78 77 78 79 79 77 76 75 76 75 73 72 71 71 71 71 69 69 70 71 74 73 72 71 71 68 66 67 66 65 65
73 74 75 75 74 72 72 73 74 72 71 70 71 73 73 75 76 77 77 76 77 77 76 75 73 73 77 78 79 79 79 78 79 79 78 77 76 75 75 76 74 72 71 72 72 71 70 69 70 70 70 70 70 70 70 71 68 67 66 64 63 63
73 73 74 74 73 71 72 74 75 73 71 70 69 70 72 73 75 76 76 76 77 77 75 74 73 72 76 78 78 78 78 77 78 78 77 76 75 74 74 74 72 71 72 71 71 70 70 69 68 67 67 68 69 69 68 68 67 65 66 63 62 62
73 72 72 73 72 72 73 75 74 72 70 69 68 70 71 73 76 77 77 77 75 73 71 69 70 75 77 77 77 77 77 77 78 77 77 75 74 74 73 72 71 71 70 71 70 69 71 69 67 67 67 68 69 66 65 65 65 64 65 64 63 63
72 72 70 71 71 73 73 71 70 70 68 68 68 70 71 72 74 77 78 77 75 70 69 69 73 76 77 77 77 77 77 77 76 76 76 75 74 73 72 71 71 70 69 70 70 69 68 69 68 68 67 65 66 66 66 66 65 65 65 65 65 64

ECMWFFLT2_sfc_temp_156.txt.gz
Temp
80 79 79 79 78 78 77 77 77 76 76 76 76 76 77 76 76 76 77 76 76 77 76 76 76 78 76 76 76 75 75 75 75 76 75 75 75 75 75 75 75 75 75 75 75 75 74 75 76 75 76 76 76 74 77 80 82 83 85 85 83 80
80 79 80 79 79 78 77 77 77 77 77 76 76 76 76 77 78 76 77 76 76 77 77 77 76 79 75 77 75 75 75 74 75 75 75 75 75 75 75 75 75 75 75 75 74 74 75 75 75 76 76 76 74 76 79 81 82 83 85 84 83 78
80 80 80 80 80 78 78 78 78 78 78 77 77 77 77 77 77 77 77 77 77 77 79 78 76 79 77 78 76 75 75 75 74 74 74 74 75 75 75 75 75 75 75 75 74 74 77 79 76 76 75 75 74 77 80 82 82 81 84 85 82 76
80 80 80 80 80 78 78 79 79 78 77 77 77 77 78 78 78 77 77 77 77 78 79 77 80 82 81 78 75 75 75 75 74 74 74 74 74 74 75 75 75 75 74 75 75 77 79 81 80 76 75 75 77 79 81 82 83 82 83 88 82 76
82 81 81 80 80 79 78 79 80 79 78 78 78 78 78 78 78 78 78 78 79 79 80 78 77 77 77 78 75 75 74 74 74 74 74 73 74 77 74 76 76 74 74 77 79 79 80 82 80 79 77 77 79 81 82 83 82 82 82 83 79 76
82 82 81 81 80 80 79 79 79 79 78 78 78 78 78 78 78 78 78 79 78 78 78 79 77 77 77 77 77 76 75 75 75 76 75 73 76 77 75 77 78 78 76 77 79 80 82 82 81 79 79 79 80 83 83 82 83 81 81 81 78 77
81 82 81 83 81 80 80 80 80 80 79 78 79 79 79 79 80 79 79 78 77 77 77 78 77 77 77 77 77 77 76 76 76 76 76 75 76 78 78 78 78 79 79 79 82 85 84 84 83 85 82 85 83 83 83 84 82 83 81 82 78 76
82 82 81 83 82 81 80 81 80 80 80 79 79 80 79 80 80 79 79 78 78 78 77 77 77 76 77 78 78 78 78 77 78 78 78 77 78 80 80 79 80 83 83 83 86 85 85 87 86 85 85 83 82 82 80 81 81 81 81 81 82 76
83 82 83 83 82 82 82 82 81 80 80 80 80 80 80 80 79 80 79 79 78 77 77 78 77 77 77 78 78 78 78 78 79 80 79 77 79 80 79 79 79 81 81 81 82 81 84 84 82 82 83 84 84 83 81 81 81 81 82 82 82 79
82 83 82 82 81 81 81 81 81 80 80 80 80 80 80 80 79 79 78 79 78 77 77 78 77 78 78 77 78 78 78 78 78 79 79 77 78 79 78 80 79 81 82 82 80 80 81 81 82 83 84 83 82 82 81 80 80 81 81 80 80 77
83 81 82 82 82 81 81 81 81 81 81 80 81 80 80 80 79 79 78 78 78 78 77 78 78 78 78 77 78 78 79 80 78 78 80 79 79 80 81 79 80 80 79 80 76 78 80 81 82 84 85 85 83 82 81 80 79 80 80 80 80 79
82 81 81 82 82 82 81 82 81 81 81 81 80 80 80 80 79 79 78 77 77 77 78 78 78 78 78 77 78 78 78 78 78 79 81 80 79 80 80 82 81 80 77 79 78 79 80 79 80 83 84 85 83 80 79 79 80 79 80 80 80 79
83 81 81 81 81 81 81 82 81 80 81 81 80 80 80 80 79 79 78 78 77 78 78 78 77 78 78 78 77 76 77 77 78 78 79 79 80 80 81 77 76 77 77 76 77 78 83 80 78 80 81 84 80 79 79 80 80 79 78 79 78 79
81 80 80 81 81 82 81 81 81 81 80 80 80 80 80 79 79 79 78 78 77 78 78 78 79 77 78 77 76 76 77 77 78 78 78 78 78 76 75 76 74 72 73 76 78 79 78 78 80 80 80 79 79 78 79 80 78 79 78 77 78 78
80 80 80 80 81 82 81 81 81 81 80 80 80 80 79 79 79 79 79 78 78 78 79 79 79 77 77 77 76 76 77 78 79 79 78 78 76 75 76 76 73 74 78 77 78 78 78 77 78 79 78 77 78 79 78 77 78 78 78 77 79 77
79 79 79 80 80 80 80 80 81 81 80 80 80 80 79 79 80 80 79 78 78 78 79 80 79 79 77 78 78 77 78 79 80 78 76 76 77 76 76 75 75 77 76 78 79 78 78 77 77 78 78 78 77 77 77 77 76 78 77 78 77 78
78 79 79 80 80 80 80 80 80 80 79 79 80 80 80 80 80 80 79 79 78 78 79 79 79 79 78 79 79 78 79 79 79 77 74 73 74 76 76 77 76 77 78 75 79 77 76 76 76 76 77 76 76 77 76 76 75 75 78 77 77 78
79 79 79 79 79 80 80 80 80 80 78 79 79 80 81 81 80 80 79 79 79 78 78 80 80 79 78 79 79 79 78 78 79 76 75 74 74 76 77 77 76 77 78 76 75 75 74 75 76 76 75 75 77 77 75 75 75 75 75 76 76 76
78 78 78 79 79 80 79 79 79 79 78 78 79 80 80 80 80 79 79 79 79 78 78 80 80 80 78 78 79 78 77 78 77 75 74 74 74 75 77 76 76 75 77 77 76 75 74 75 75 75 75 75 77 75 74 76 75 74 73 74 75 77
78 78 78 78 79 79 79 78 77 77 77 77 78 79 79 80 79 80 80 80 79 78 80 79 80 80 79 79 76 76 77 77 75 73 72 72 72 75 75 76 76 76 75 75 76 75 75 73 72 73 73 74 74 75 75 74 75 74 74 74 74 75
77 78 78 78 78 78 77 76 77 76 75 76 77 78 78 78 79 80 81 81 80 79 79 80 80 80 78 78 75 75 76 76 74 73 73 73 73 76 76 76 75 74 74 74 73 75 74 72 70 70 72 71 71 74 74 75 74 72 74 74 74 73
77 77 77 77 77 77 77 77 76 76 76 77 77 77 77 78 78 80 80 80 79 80 80 80 79 79 78 76 75 74 74 74 73 72 73 74 75 77 77 77 75 74 75 73 72 74 73 72 69 66 65 67 68 71 73 75 75 73 73 73 75 73
77 77 77 78 78 77 77 78 78 77 77 77 79 78 79 79 79 79 79 79 80 80 80 80 77 73 71 73 74 74 73 72 73 73 72 71 72 75 76 76 76 73 72 74 73 74 72 72 67 67 68 66 65 66 67 69 71 72 74 75 73 74
77 77 77 78 78 78 79 79 79 78 78 78 77 78 78 79 79 78 78 80 77 75 73 72 72 70 70 70 70 73 73 72 73 73 74 73 73 74 76 75 75 74 74 70 74 73 73 72 70 67 62 63 63 65 63 64 66 71 73 74 73 73
76 77 77 77 78 78 78 77 78 78 79 78 78 77 77 77 77 78 77 76 74 75 74 72 71 71 71 71 72 71 72 71 71 72 71 69 71 75 76 77 76 74 72 70 70 71 72 73 70 71 67 63 62 63 61 64 66 66 69 70 72 73
76 77 77 78 78 78 76 75 75 74 73 73 72 73 73 73 75 76 75 75 75 75 74 72 71 72 72 71 70 70 71 71 71 72 72 73 74 76 76 76 77 76 73 73 71 70 70 72 72 71 71 68 66 61 61 64 63 60 68 72 72 74
76 76 77 78 78 77 76 76 75 75 75 73 73 74 75 76 76 77 76 74 73 74 74 72 71 71 70 71 70 70 71 70 70 69 70 71 71 76 76 77 76 74 74 73 72 69 69 69 69 71 72 70 70 70 70 64 60 63 60 65 69 70
76 76 77 77 77 76 75 75 75 75 75 75 74 74 76 76 77 77 75 74 73 72 72 72 70 71 70 69 70 70 70 70 69 70 70 72 75 75 75 75 74 74 72 71 71 69 68 69 67 68 69 69 70 70 70 69 68 65 62 59 61 68
76 76 76 77 77 76 76 76 75 75 74 76 76 76 77 77 76 76 73 74 73 72 71 71 71 70 70 69 69 69 70 69 69 70 71 76 75 76 74 73 73 73 71 71 70 70 68 67 68 66 66 67 68 68 68 69 69 68 63 59 60 62
76 76 76 76 77 76 76 76 75 74 74 75 75 76 77 76 75 73 73 72 71 70 71 69 70 70 70 71 70 70 70 69 69 71 73 75 75 74 74 73 72 71 72 70 70 69 68 67 69 68 68 67 66 66 66 66 65 64 64 64 59 60
75 75 76 76 76 76 76 76 75 75 75 75 75 75 74 74 75 73 72 72 72 68 68 68 68 68 70 72 70 69 69 70 72 74 75 75 75 74 73 72 72 72 72 71 69 69 69 69 68 68 69 67 66 66 64 63 61 63 61 60 59 60
74 74 75 76 76 75 75 75 75 75 75 75 75 75 74 74 75 73 71 70 69 66 66 67 67 68 69 72 72 70 71 73 73 75 74 75 74 74 74 73 72 71 70 70 70 70 69 67 67 67 68 68 67 68 66 64 64 64 62 61 60 59
73 74 75 75 75 75 74 74 74 75 75 75 75 75 74 74 75 72 69 67 66 64 65 66 67 69 70 73 72 71 71 72 73 74 75 74 73 74 73 72 71 71 69 69 69 69 66 66 67 65 65 67 66 67 65 66 65 64 64 64 62 58
73 74 74 74 74 74 74 74 75 75 75 75 75 75 75 75 75 68 68 69 67 65 65 65 66 68 70 72 71 71 71 71 74 74 73 73 73 73 73 73 70 69 69 68 70 69 68 68 67 66 66 66 66 65 64 65 64 64 63 61 58 58
73 74 74 74 74 74 74 74 74 75 75 76 75 75 75 75 75 69 68 68 66 66 65 66 66 69 71 70 70 69 70 70 72 72 72 72 72 72 71 71 70 69 69 69 69 68 67 67 67 68 66 66 64 64 63 64 64 63 63 62 61 59
73 73 73 73 74 74 74 74 74 74 75 75 75 75 74 74 73 72 69 67 66 66 66 66 67 69 69 69 69 68 69 70 72 71 71 72 71 71 70 68 68 68 68 71 68 69 67 68 66 66 67 66 64 63 64 64 64 62 62 62 62 61
74 73 73 73 74 74 74 73 73 74 74 74 74 73 73 72 69 67 67 67 66 66 67 66 67 67 68 69 69 68 69 69 71 71 71 71 71 70 69 68 67 68 68 69 68 68 67 66 66 65 64 65 64 64 63 64 64 64 63 62 63 61

ECMWFFLT2_sfc_temp_162.txt.gz
Temp
74 74 74 74 73 74 76 76 76 76 76 76 76 76 76 76 76 76 76 76 75 73 72 72 73 72 75 73 74 74 74 74 74 74 74 74 74 74 74 74 75 75 75 75 74 74 74 74 74 74 74 74 75 72 69 68 70 70 72 72 73 71
74 74 74 74 74 74 75 76 74 75 75 75 76 76 75 74 76 74 76 75 72 72 71 70 71 74 71 73 73 74 74 74 74 74 74 74 74 74 74 74 74 74 74 74 74 70 69 71 73 73 74 75 73 69 69 70 70 70 72 73 72 72
74 74 74 74 74 73 74 74 73 74 74 75 75 75 74 75 73 73 73 71 71 71 70 70 71 73 72 74 72 74 74 74 74 74 74 74 74 74 74 74 74 74 74 74 71 67 67 67 66 71 72 70 67 69 69 70 70 70 71 73 72 75
73 74 74 74 74 73 73 74 73 73 73 73 73 73 73 72 72 72 72 70 69 70 70 69 74 76 75 72 72 74 75 74 74 74 74 72 73 73 74 74 74 74 72 70 67 66 67 67 67 68 68 67 67 69 70 70 70 71 71 75 75 75
73 74 74 74 73 73 73 74 74 74 73 72 72 72 71 71 71 71 71 70 69 70 69 68 70 71 70 69 68 68 70 68 68 66 72 65 65 67 67 66 66 68 67 67 66 67 67 67 68 69 69 68 69 70 70 71 70 71 72 72 75 76
72 73 74 74 74 74 74 73 73 74 73 72 72 71 71 70 70 71 70 70 70 69 68 68 68 67 69 68 68 67 68 67 66 66 68 66 64 64 64 64 65 67 66 65 66 67 67 69 69 69 69 69 70 70 71 70 71 71 72 72 73 76
72 73 73 74 74 74 73 74 74 73 72 72 72 72 71 70 70 70 70 70 69 68 68 67 67 66 68 68 68 67 67 67 66 66 67 65 65 65 65 65 65 66 66 67 68 69 69 70 70 71 71 72 72 72 71 71 71 71 72 71 73 76
72 72 72 73 73 73 73 73 73 73 72 72 72 71 71 70 70 70 70 69 70 68 67 67 67 66 67 67 67 67 67 66 66 66 66 66 65 64 64 65 66 67 67 68 70 71 71 72 73 72 72 72 73 72 71 71 71 71 72 70 72 75
72 72 72 72 71 72 73 73 73 72 70 72 71 71 71 70 70 70 70 70 70 68 67 67 67 67 66 67 67 67 66 66 67 66 65 65 66 65 65 65 66 66 66 68 68 70 72 72 72 72 72 73 73 73 72 71 71 70 70 68 69 73
73 73 73 72 71 71 72 72 72 71 71 72 70 71 70 70 70 70 70 70 70 68 67 67 68 66 67 67 67 67 67 66 66 66 65 66 66 65 66 65 66 66 69 69 69 70 70 71 72 72 72 73 71 72 70 70 69 70 69 70 68 70
73 73 73 72 71 71 72 71 71 71 71 71 71 71 71 71 70 70 70 70 69 69 68 68 68 67 67 67 67 67 66 66 65 65 66 67 67 67 66 65 67 67 68 69 70 70 70 70 71 74 73 72 71 69 70 69 69 69 71 70 68 68
74 74 73 72 72 71 71 72 72 72 71 72 71 71 71 71 70 70 71 70 69 68 69 68 69 68 68 67 66 67 67 66 66 66 67 68 68 67 66 68 69 69 69 69 68 69 70 69 69 70 71 71 70 70 70 70 70 70 69 70 70 69
74 74 73 72 72 72 72 72 72 72 72 72 71 71 71 71 70 70 70 70 69 69 69 69 68 69 69 67 67 67 66 68 68 68 68 68 68 67 68 68 68 69 68 68 70 70 72 69 68 70 68 71 69 70 69 70 70 69 69 69 69 68
74 73 73 73 73 72 72 72 73 72 72 72 72 71 71 70 71 70 71 71 70 70 69 69 69 69 67 67 68 68 68 68 69 68 69 69 67 67 68 67 68 67 70 68 68 68 67 68 67 66 66 67 68 70 68 70 68 69 68 69 67 67
74 73 74 73 73 73 73 73 73 72 72 72 72 72 71 70 71 71 71 70 71 70 69 70 70 69 68 68 67 67 68 70 69 67 67 68 69 67 67 68 67 70 66 67 66 68 67 65 66 68 67 68 69 69 67 68 67 67 68 66 66 68
74 73 74 74 73 73 73 73 73 74 72 73 73 72 71 71 71 71 71 70 70 70 70 69 70 69 68 68 69 68 69 69 68 68 68 68 68 68 67 67 68 69 70 68 68 66 64 65 66 67 66 67 66 67 67 65 66 66 67 65 67 67
73 74 74 74 74 73 74 73 73 73 73 73 73 72 71 71 72 72 71 70 69 70 69 69 70 69 68 68 68 69 68 69 68 68 67 67 68 68 67 69 67 68 68 67 66 66 65 64 66 66 66 66 66 66 66 68 66 66 66 66 65 66
74 75 74 74 74 73 75 75 74 73 73 73 72 72 71 72 72 73 72 70 70 70 69 69 70 69 68 69 69 69 68 67 68 67 67 66 67 66 66 68 68 66 67 66 65 64 66 65 67 66 65 65 66 64 64 66 66 66 66 67 65 67
75 75 74 73 75 74 74 75 74 73 72 72 71 71 72 71 72 72 72 70 70 70 70 69 70 69 69 69 68 67 67 67 68 67 68 68 67 67 67 66 68 67 67 68 67 66 67 65 66 65 65 64 63 63 64 65 64 64 63 63 67 69
75 75 75 73 74 73 72 72 72 71 70 70 70 70 70 71 71 72 72 71 71 70 70 70 70 71 69 69 67 67 67 67 68 68 68 68 67 69 69 68 67 68 69 67 66 65 64 64 62 61 62 62 61 61 63 66 65 64 64 66 66 66
74 75 74 73 72 71 70 70 71 70 70 69 70 69 69 69 71 72 71 71 71 70 69 69 71 70 68 71 68 68 67 66 67 67 67 68 67 68 68 68 68 67 68 67 68 64 65 62 60 61 56 59 61 63 66 65 64 64 63 63 63 65
74 74 75 73 71 71 71 71 70 70 70 69 69 69 69 68 70 71 71 71 71 70 70 69 71 68 67 68 67 66 66 66 66 66 67 67 68 69 68 68 69 68 66 66 64 65 65 65 60 60 57 59 57 62 63 62 63 64 64 63 63 63
75 75 74 73 72 70 69 70 71 69 71 69 70 72 71 70 71 70 70 71 71 71 70 70 69 68 68 67 67 67 66 66 65 67 67 67 67 67 68 68 68 66 65 63 64 66 64 60 63 57 57 59 56 59 62 59 58 62 65 64 64 66
74 75 74 72 72 72 71 71 71 71 71 72 71 70 70 69 70 70 69 71 71 71 70 68 68 68 68 67 67 67 66 65 66 67 66 66 66 67 67 67 67 66 65 64 62 65 64 62 60 60 59 57 56 55 56 56 56 58 60 63 64 64
74 75 75 73 72 72 71 69 70 70 70 70 69 69 68 66 68 69 69 68 69 70 69 68 67 67 67 67 67 66 66 66 66 66 66 66 67 68 68 68 68 66 65 62 61 61 65 63 62 59 57 55 55 53 54 55 56 58 58 63 63 63
74 75 75 73 72 71 70 69 68 67 67 67 67 68 68 68 66 67 67 68 68 68 68 67 67 67 67 67 66 66 66 66 66 66 66 66 66 66 67 66 66 67 64 62 62 61 63 64 62 63 58 56 55 56 53 55 55 57 55 58 60 62
74 73 74 73 72 72 70 70 69 69 69 68 67 68 68 69 67 67 68 67 67 67 68 67 67 67 67 67 67 66 66 66 66 65 67 66 66 67 67 67 67 66 66 64 63 60 62 60 62 62 61 60 61 58 54 57 55 53 55 55 57 59
74 73 74 73 72 72 70 70 69 69 69 68 68 67 68 67 68 68 67 67 66 66 67 67 67 67 67 67 67 66 66 66 66 65 66 65 66 66 67 67 67 66 65 64 63 63 59 58 58 61 60 60 60 60 59 58 54 58 53 53 54 56
73 74 73 72 71 71 71 70 70 69 68 69 69 67 68 68 67 67 66 65 64 63 64 66 67 67 67 67 67 67 67 66 66 66 66 65 64 65 66 66 66 65 65 63 65 63 61 59 58 60 57 60 57 57 58 57 56 55 52 50 52 51
73 74 74 72 71 70 71 70 69 69 68 67 67 67 68 67 67 66 65 63 63 63 64 64 65 66 66 67 67 67 66 66 66 66 66 66 65 65 65 65 66 65 65 64 63 63 61 58 58 57 57 58 57 55 56 56 55 54 54 52 52 53
72 73 73 72 71 70 71 70 70 69 68 67 67 67 67 66 66 65 64 63 63 63 63 63 65 65 65 66 66 67 66 66 66 67 66 66 65 65 65 65 65 65 65 64 63 62 61 58 59 58 56 56 56 56 56 54 53 53 52 50 50 51
71 72 72 72 71 71 71 70 70 69 68 67 68 68 68 66 66 64 63 63 63 63 62 63 63 64 65 66 66 65 66 65 65 65 65 65 64 65 65 65 65 64 63 63 62 62 60 58 58 58 57 56 56 57 56 56 54 54 54 52 51 50
70 71 71 71 70 71 70 70 69 68 68 68 68 69 69 67 67 65 64 63 63 62 62 62 63 64 64 66 66 65 65 65 65 65 65 65 64 65 65 65 65 64 63 62 61 61 59 58 58 58 56 56 56 57 56 55 56 55 54 52 52 48
70 70 71 71 70 70 70 70 69 68 68 68 68 69 69 68 67 64 64 63 63 63 62 63 63 64 65 66 66 66 67 66 66 66 66 65 65 65 66 65 65 64 63 61 61 61 60 58 58 58 57 56 56 55 55 56 55 55 54 53 51 51
69 70 70 70 70 70 69 68 68 68 69 69 68 68 68 68 66 64 63 63 64 64 63 64 64 65 66 66 66 66 66 65 65 65 65 65 66 66 65 65 64 63 62 62 62 62 59 59 59 57 56 56 56 56 55 55 55 55 55 54 52 50
69 69 70 69 70 69 68 67 67 67 68 69 68 68 67 66 66 65 64 64 64 64 64 64 65 65 66 66 66 66 66 66 66 66 66 66 66 65 64 64 62 63 62 63 62 60 58 58 57 57 56 55 56 55 55 55 56 54 53 52 53 51
69 69 69 69 69 69 67 67 66 67 67 68 68 67 67 66 65 65 65 64 64 64 64 64 64 66 66 66 66 66 66 66 66 66 66 66 66 65 65 64 63 63 62 62 61 59 58 58 57 56 55 56 56 55 54 54 55 54 54 52 53 51